Wetterdaten: Montag, 17.04.2017
Datum Zeit Temp. Aussen Temp. o. S. +5cm Feuchte Auss BlattFeu 1 Luftdruck Regen Sonnenschein Regendauer Solar Windben Empfang
17.04.2017 00:00 5,8 C 6,1 C 4,4 C 81 % 0 lf 1018,6 hPa 0,0 l/m 0 min 0 min 0 W/m 8,4 km/h (2 Bft) 93,48 %
17.04.2017 00:02 5,8 C 6,1 C 4,4 C 81 % 0 lf 1018,6 hPa 0,0 l/m 0 min 0 min 0 W/m 6,3 km/h (2 Bft) 97,30 %
17.04.2017 00:04 5,8 C 6,1 C 4,4 C 81 % 0 lf 1018,6 hPa 0,0 l/m 0 min 0 min 0 W/m 6,3 km/h (2 Bft) 97,87 %
17.04.2017 00:06 5,8 C 6,1 C 5,0 C 81 % 0 lf 1018,6 hPa 0,0 l/m 0 min 0 min 0 W/m 6,3 km/h (2 Bft) 95,74 %
17.04.2017 00:10 5,8 C 6,1 C 5,0 C 81 % 0 lf 1018,7 hPa 0,0 l/m 0 min 0 min 0 W/m 8,4 km/h (2 Bft) 97,85 %
17.04.2017 00:12 5,8 C 6,1 C 5,0 C 81 % 0 lf 1018,6 hPa 0,0 l/m 0 min 0 min 0 W/m 6,3 km/h (2 Bft) 95,74 %
17.04.2017 00:14 5,8 C 6,1 C 5,0 C 81 % 0 lf 1018,6 hPa 0,0 l/m 0 min 0 min 0 W/m 6,3 km/h (2 Bft) 95,74 %
17.04.2017 00:16 5,8 C 6,1 C 5,0 C 81 % 0 lf 1018,6 hPa 0,0 l/m 0 min 0 min 0 W/m 8,4 km/h (2 Bft) 97,87 %
17.04.2017 00:18 5,8 C 6,1 C 5,0 C 81 % 0 lf 1018,6 hPa 0,0 l/m 0 min 0 min 0 W/m 6,3 km/h (2 Bft) 93,62 %
17.04.2017 00:20 5,8 C 6,1 C 5,0 C 81 % 0 lf 1018,6 hPa 0,0 l/m 0 min 0 min 0 W/m 6,3 km/h (2 Bft) 97,87 %
17.04.2017 00:22 5,8 C 6,1 C 5,0 C 81 % 0 lf 1018,6 hPa 0,0 l/m 0 min 0 min 0 W/m 6,3 km/h (2 Bft) 93,48 %
17.04.2017 00:24 5,9 C 6,1 C 5,0 C 81 % 0 lf 1018,6 hPa 0,0 l/m 0 min 0 min 0 W/m 6,3 km/h (2 Bft) 95,74 %
17.04.2017 00:26 5,9 C 6,1 C 5,0 C 81 % 0 lf 1018,6 hPa 0,0 l/m 0 min 0 min 0 W/m 4,2 km/h (1 Bft) 97,87 %
17.04.2017 00:28 5,9 C 6,1 C 5,0 C 81 % 0 lf 1018,6 hPa 0,0 l/m 0 min 0 min 0 W/m 6,3 km/h (2 Bft) 95,74 %
17.04.2017 00:30 5,9 C 6,1 C 5,0 C 81 % 0 lf 1018,6 hPa 0,0 l/m 0 min 0 min 0 W/m 6,3 km/h (2 Bft) 93,62 %
17.04.2017 00:32 5,9 C 6,1 C 5,0 C 81 % 0 lf 1018,6 hPa 0,0 l/m 0 min 0 min 0 W/m 6,3 km/h (2 Bft) 93,62 %
17.04.2017 00:34 5,9 C 6,1 C 5,0 C 81 % 1 lf 1018,6 hPa 0,0 l/m 0 min 0 min 0 W/m 8,4 km/h (2 Bft) 93,48 %
17.04.2017 00:36 5,9 C 6,1 C 5,0 C 81 % 6 lf 1018,7 hPa 0,0 l/m 0 min 0 min 0 W/m 6,3 km/h (2 Bft) 93,62 %
17.04.2017 00:38 5,9 C 6,1 C 5,0 C 82 % 8 lf 1018,6 hPa 0,0 l/m 0 min 2 min 0 W/m 10,5 km/h (2 Bft) 100,00 %
17.04.2017 00:40 6,0 C 6,1 C 5,0 C 82 % 9 lf 1018,6 hPa 0,0 l/m 0 min 2 min 0 W/m 8,4 km/h (2 Bft) 95,74 %
17.04.2017 00:42 6,0 C 6,1 C 4,4 C 82 % 12 lf 1018,6 hPa 0,0 l/m 0 min 2 min 0 W/m 14,6 km/h (3 Bft) 97,87 %
17.04.2017 00:44 6,0 C 6,1 C 4,4 C 82 % 10 lf 1018,6 hPa 0,0 l/m 0 min 2 min 0 W/m 8,4 km/h (2 Bft) 95,74 %
17.04.2017 00:46 6,1 C 6,1 C 4,4 C 82 % 11 lf 1018,6 hPa 0,0 l/m 0 min 2 min 0 W/m 12,6 km/h (3 Bft) 97,83 %
17.04.2017 00:48 6,1 C 6,1 C 4,4 C 82 % 10 lf 1018,6 hPa 0,0 l/m 0 min 2 min 0 W/m 10,5 km/h (2 Bft) 95,74 %
17.04.2017 00:50 6,1 C 6,1 C 4,4 C 82 % 13 lf 1018,6 hPa 0,0 l/m 0 min 2 min 0 W/m 10,5 km/h (2 Bft) 93,62 %
17.04.2017 00:52 6,1 C 6,1 C 4,4 C 83 % 13 lf 1018,6 hPa 0,0 l/m 0 min 2 min 0 W/m 8,4 km/h (2 Bft) 91,49 %
17.04.2017 00:54 6,2 C 6,1 C 4,4 C 83 % 14 lf 1018,6 hPa 0,0 l/m 0 min 2 min 0 W/m 16,7 km/h (3 Bft) 95,74 %
17.04.2017 00:56 6,2 C 6,1 C 4,4 C 83 % 14 lf 1018,6 hPa 0,0 l/m 0 min 2 min 0 W/m 10,5 km/h (2 Bft) 95,74 %
17.04.2017 00:58 6,2 C 6,1 C 4,4 C 83 % 15 lf 1018,5 hPa 0,0 l/m 0 min 2 min 0 W/m 10,5 km/h (2 Bft) 95,65 %
17.04.2017 01:00 6,2 C 6,1 C 4,4 C 83 % 15 lf 1018,6 hPa 0,0 l/m 0 min 2 min 0 W/m 6,3 km/h (2 Bft) 89,36 %
17.04.2017 01:02 6,2 C 5,6 C 4,4 C 83 % 15 lf 1018,6 hPa 0,0 l/m 0 min 2 min 0 W/m 10,5 km/h (2 Bft) 97,87 %
17.04.2017 01:04 6,2 C 5,6 C 4,4 C 83 % 15 lf 1018,5 hPa 0,0 l/m 0 min 2 min 0 W/m 8,4 km/h (2 Bft) 97,87 %
17.04.2017 01:06 6,2 C 5,6 C 3,9 C 83 % 15 lf 1018,6 hPa 0,0 l/m 0 min 2 min 0 W/m 12,6 km/h (3 Bft) 93,62 %
17.04.2017 01:08 6,2 C 5,6 C 3,9 C 83 % 15 lf 1018,5 hPa 0,0 l/m 0 min 2 min 0 W/m 10,5 km/h (2 Bft) 97,87 %
17.04.2017 01:10 6,2 C 5,6 C 3,9 C 83 % 15 lf 1018,5 hPa 0,0 l/m 0 min 2 min 0 W/m 6,3 km/h (2 Bft) 95,65 %
17.04.2017 01:12 6,2 C 5,6 C 3,9 C 83 % 15 lf 1018,6 hPa 0,2 l/m 0 min 2 min 0 W/m 6,3 km/h (2 Bft) 97,87 %
17.04.2017 01:14 6,2 C 5,6 C 3,9 C 83 % 15 lf 1018,5 hPa 0,0 l/m 0 min 2 min 0 W/m 8,4 km/h (2 Bft) 95,74 %
17.04.2017 01:16 6,2 C 5,6 C 3,9 C 83 % 15 lf 1018,4 hPa 0,0 l/m 0 min 2 min 0 W/m 6,3 km/h (2 Bft) 95,74 %
17.04.2017 01:18 6,2 C 5,6 C 3,9 C 83 % 15 lf 1018,4 hPa 0,0 l/m 0 min 2 min 0 W/m 4,2 km/h (1 Bft) 97,87 %
17.04.2017 01:20 6,2 C 5,6 C 3,9 C 83 % 15 lf 1018,3 hPa 0,0 l/m 0 min 2 min 0 W/m 4,2 km/h (1 Bft) 93,48 %
17.04.2017 01:22 6,2 C 5,6 C 3,9 C 83 % 15 lf 1018,3 hPa 0,0 l/m 0 min 2 min 0 W/m 4,2 km/h (1 Bft) 95,74 %
17.04.2017 01:24 6,2 C 5,6 C 3,9 C 83 % 15 lf 1018,3 hPa 0,0 l/m 0 min 0 min 0 W/m 2,1 km/h (1 Bft) 87,23 %
17.04.2017 01:26 6,2 C 5,6 C 3,9 C 83 % 15 lf 1018,3 hPa 0,0 l/m 0 min 2 min 0 W/m 2,1 km/h (1 Bft) 93,62 %
17.04.2017 01:28 6,2 C 5,6 C 3,9 C 83 % 15 lf 1018,3 hPa 0,0 l/m 0 min 2 min 0 W/m 2,1 km/h (1 Bft) 91,49 %
17.04.2017 01:30 6,2 C 5,6 C 3,9 C 83 % 15 lf 1018,3 hPa 0,0 l/m 0 min 2 min 0 W/m 0,0 km/h (0 Bft) 95,74 %
17.04.2017 01:32 6,2 C 5,6 C 3,9 C 83 % 15 lf 1018,2 hPa 0,0 l/m 0 min 2 min 0 W/m 0,0 km/h (0 Bft) 95,65 %
17.04.2017 01:34 6,2 C 5,6 C 3,9 C 83 % 15 lf 1018,2 hPa 0,0 l/m 0 min 2 min 0 W/m 0,0 km/h (0 Bft) 91,49 %
17.04.2017 01:36 6,2 C 5,6 C 3,9 C 83 % 15 lf 1018,2 hPa 0,0 l/m 0 min 2 min 0 W/m 0,0 km/h (0 Bft) 91,49 %
17.04.2017 01:38 6,2 C 5,0 C 3,9 C 83 % 15 lf 1018,2 hPa 0,0 l/m 0 min 2 min 0 W/m 0,0 km/h (0 Bft) 93,62 %
17.04.2017 01:40 6,2 C 5,0 C 3,9 C 83 % 15 lf 1018,2 hPa 0,0 l/m 0 min 2 min 0 W/m 0,0 km/h (0 Bft) 93,62 %
17.04.2017 01:42 6,2 C 5,0 C 3,9 C 83 % 15 lf 1018,2 hPa 0,0 l/m 0 min 2 min 0 W/m 0,0 km/h (0 Bft) 93,62 %
17.04.2017 01:44 6,2 C 5,0 C 3,9 C 83 % 15 lf 1018,2 hPa 0,0 l/m 0 min 2 min 0 W/m 0,0 km/h (0 Bft) 93,48 %
17.04.2017 01:46 6,1 C 5,0 C 3,9 C 83 % 15 lf 1018,1 hPa 0,0 l/m 0 min 2 min 0 W/m 0,0 km/h (0 Bft) 93,62 %
17.04.2017 01:48 6,2 C 5,0 C 3,9 C 83 % 15 lf 1018,0 hPa 0,2 l/m 0 min 2 min 0 W/m 0,0 km/h (0 Bft) 95,74 %
17.04.2017 01:50 6,2 C 5,0 C 3,9 C 83 % 15 lf 1018,0 hPa 0,0 l/m 0 min 2 min 0 W/m 0,0 km/h (0 Bft) 95,74 %
17.04.2017 01:52 6,2 C 5,0 C 3,9 C 83 % 15 lf 1018,0 hPa 0,0 l/m 0 min 2 min 0 W/m 0,0 km/h (0 Bft) 95,74 %
17.04.2017 01:54 6,1 C 5,0 C 3,9 C 83 % 15 lf 1018,0 hPa 0,0 l/m 0 min 2 min 0 W/m 0,0 km/h (0 Bft) 95,74 %
17.04.2017 01:56 6,2 C 5,0 C 3,9 C 84 % 15 lf 1017,9 hPa 0,0 l/m 0 min 2 min 0 W/m 0,0 km/h (0 Bft) 97,83 %
17.04.2017 01:58 6,2 C 5,0 C 3,9 C 84 % 15 lf 1017,9 hPa 0,2 l/m 0 min 2 min 0 W/m 0,0 km/h (0 Bft) 97,87 %
17.04.2017 02:00 6,1 C 5,0 C 3,9 C 84 % 15 lf 1017,9 hPa 0,0 l/m 0 min 2 min 0 W/m 0,0 km/h (0 Bft) 100,00 %
17.04.2017 02:02 6,1 C 5,0 C 3,9 C 84 % 15 lf 1017,8 hPa 0,0 l/m 0 min 2 min 0 W/m 0,0 km/h (0 Bft) 100,00 %
17.04.2017 02:04 6,1 C 5,0 C 3,9 C 84 % 15 lf 1017,8 hPa 0,2 l/m 0 min 2 min 0 W/m 0,0 km/h (0 Bft) 100,00 %
17.04.2017 02:06 6,1 C 5,0 C 3,9 C 84 % 15 lf 1017,8 hPa 0,0 l/m 0 min 2 min 0 W/m 0,0 km/h (0 Bft) 100,00 %
17.04.2017 02:08 6,1 C 5,0 C 3,9 C 85 % 15 lf 1017,8 hPa 0,0 l/m 0 min 2 min 0 W/m 0,0 km/h (0 Bft) 100,00 %
17.04.2017 02:10 6,1 C 5,0 C 3,9 C 85 % 15 lf 1017,8 hPa 0,0 l/m 0 min 2 min 0 W/m 0,0 km/h (0 Bft) 97,87 %
17.04.2017 02:12 6,1 C 5,0 C 3,9 C 85 % 15 lf 1017,8 hPa 0,0 l/m 0 min 2 min 0 W/m 0,0 km/h (0 Bft) 97,87 %
17.04.2017 02:14 6,1 C 5,0 C 3,9 C 85 % 15 lf 1017,7 hPa 0,0 l/m 0 min 2 min 0 W/m 0,0 km/h (0 Bft) 97,87 %
17.04.2017 02:16 6,1 C 5,0 C 3,9 C 85 % 15 lf 1017,7 hPa 0,2 l/m 0 min 2 min 0 W/m 0,0 km/h (0 Bft) 97,87 %
17.04.2017 02:18 6,1 C 5,0 C 3,9 C 85 % 15 lf 1017,7 hPa 0,0 l/m 0 min 2 min 0 W/m 0,0 km/h (0 Bft) 97,87 %
17.04.2017 02:20 6,0 C 5,0 C 3,9 C 85 % 15 lf 1017,7 hPa 0,0 l/m 0 min 2 min 0 W/m 0,0 km/h (0 Bft) 100,00 %
17.04.2017 02:22 6,0 C 5,0 C 3,9 C 86 % 15 lf 1017,7 hPa 0,0 l/m 0 min 2 min 0 W/m 0,0 km/h (0 Bft) 97,87 %
17.04.2017 02:24 6,0 C 5,0 C 3,9 C 86 % 15 lf 1017,7 hPa 0,0 l/m 0 min 2 min 0 W/m 0,0 km/h (0 Bft) 95,74 %
17.04.2017 02:26 6,0 C 5,0 C 3,9 C 86 % 15 lf 1017,6 hPa 0,0 l/m 0 min 2 min 0 W/m 0,0 km/h (0 Bft) 97,87 %
17.04.2017 02:28 6,0 C 5,0 C 3,9 C 86 % 15 lf 1017,6 hPa 0,0 l/m 0 min 2 min 0 W/m 0,0 km/h (0 Bft) 95,74 %
17.04.2017 02:30 5,9 C 5,0 C 3,9 C 86 % 15 lf 1017,6 hPa 0,0 l/m 0 min 2 min 0 W/m 0,0 km/h (0 Bft) 97,83 %
17.04.2017 02:32 5,9 C 5,0 C 3,9 C 86 % 15 lf 1017,5 hPa 0,0 l/m 0 min 2 min 0 W/m 0,0 km/h (0 Bft) 97,87 %
17.04.2017 02:34 5,9 C 5,0 C 3,9 C 87 % 15 lf 1017,5 hPa 0,0 l/m 0 min 2 min 0 W/m 0,0 km/h (0 Bft) 97,87 %
17.04.2017 02:36 5,9 C 5,0 C 3,9 C 87 % 15 lf 1017,5 hPa 0,0 l/m 0 min 2 min 0 W/m 0,0 km/h (0 Bft) 95,74 %
17.04.2017 02:38 5,9 C 5,0 C 3,9 C 87 % 15 lf 1017,5 hPa 0,0 l/m 0 min 2 min 0 W/m 0,0 km/h (0 Bft) 97,87 %
17.04.2017 02:40 5,9 C 5,0 C 3,9 C 87 % 15 lf 1017,5 hPa 0,2 l/m 0 min 2 min 0 W/m 0,0 km/h (0 Bft) 97,87 %
17.04.2017 02:42 5,9 C 5,0 C 3,9 C 87 % 15 lf 1017,4 hPa 0,0 l/m 0 min 2 min 0 W/m 0,0 km/h (0 Bft) 95,65 %
17.04.2017 02:44 5,9 C 5,0 C 3,9 C 87 % 15 lf 1017,4 hPa 0,0 l/m 0 min 2 min 0 W/m 0,0 km/h (0 Bft) 97,87 %
17.04.2017 02:46 5,9 C 5,0 C 3,9 C 88 % 15 lf 1017,4 hPa 0,0 l/m 0 min 2 min 0 W/m 4,2 km/h (1 Bft) 97,87 %
17.04.2017 02:48 5,9 C 5,0 C 3,9 C 88 % 15 lf 1017,3 hPa 0,0 l/m 0 min 2 min 0 W/m 4,2 km/h (1 Bft) 100,00 %
17.04.2017 02:50 5,8 C 5,0 C 3,9 C 88 % 15 lf 1017,3 hPa 0,0 l/m 0 min 2 min 0 W/m 4,2 km/h (1 Bft) 100,00 %
17.04.2017 02:52 5,8 C 5,0 C 3,9 C 88 % 15 lf 1017,2 hPa 0,0 l/m 0 min 2 min 0 W/m 6,3 km/h (2 Bft) 97,87 %
17.04.2017 02:54 5,8 C 5,0 C 3,9 C 88 % 15 lf 1017,2 hPa 0,2 l/m 0 min 2 min 0 W/m 4,2 km/h (1 Bft) 100,00 %
17.04.2017 02:56 5,8 C 5,0 C 3,9 C 89 % 15 lf 1017,2 hPa 0,0 l/m 0 min 2 min 0 W/m 4,2 km/h (1 Bft) 100,00 %
17.04.2017 02:58 5,8 C 5,0 C 3,9 C 89 % 15 lf 1017,1 hPa 0,0 l/m 0 min 2 min 0 W/m 4,2 km/h (1 Bft) 100,00 %
17.04.2017 03:00 5,8 C 5,0 C 4,4 C 89 % 15 lf 1017,1 hPa 0,0 l/m 0 min 2 min 0 W/m 4,2 km/h (1 Bft) 100,00 %
17.04.2017 03:02 5,8 C 5,0 C 4,4 C 89 % 15 lf 1017,1 hPa 0,0 l/m 0 min 2 min 0 W/m 6,3 km/h (2 Bft) 100,00 %
17.04.2017 03:04 5,8 C 5,0 C 3,9 C 89 % 15 lf 1017,1 hPa 0,0 l/m 0 min 2 min 0 W/m 6,3 km/h (2 Bft) 97,87 %
17.04.2017 03:06 5,8 C 5,0 C 3,9 C 89 % 15 lf 1017,0 hPa 0,2 l/m 0 min 2 min 0 W/m 6,3 km/h (2 Bft) 100,00 %
17.04.2017 03:08 5,7 C 5,0 C 3,9 C 89 % 15 lf 1017,0 hPa 0,0 l/m 0 min 2 min 0 W/m 4,2 km/h (1 Bft) 100,00 %
17.04.2017 03:10 5,7 C 5,0 C 3,9 C 89 % 15 lf 1017,0 hPa 0,0 l/m 0 min 2 min 0 W/m 6,3 km/h (2 Bft) 97,87 %
17.04.2017 03:12 5,7 C 5,0 C 3,9 C 90 % 15 lf 1016,9 hPa 0,0 l/m 0 min 2 min 0 W/m 6,3 km/h (2 Bft) 95,74 %
17.04.2017 03:14 5,7 C 5,0 C 3,9 C 90 % 15 lf 1017,0 hPa 0,0 l/m 0 min 2 min 0 W/m 6,3 km/h (2 Bft) 100,00 %
17.04.2017 03:16 5,7 C 5,0 C 3,9 C 90 % 15 lf 1016,9 hPa 0,0 l/m 0 min 2 min 0 W/m 4,2 km/h (1 Bft) 100,00 %
17.04.2017 03:18 5,7 C 5,0 C 3,9 C 90 % 15 lf 1016,8 hPa 0,2 l/m 0 min 2 min 0 W/m 4,2 km/h (1 Bft) 100,00 %
17.04.2017 03:20 5,6 C 5,0 C 3,9 C 90 % 15 lf 1016,9 hPa 0,0 l/m 0 min 2 min 0 W/m 2,1 km/h (1 Bft) 100,00 %
17.04.2017 03:22 5,6 C 5,0 C 3,9 C 90 % 15 lf 1016,8 hPa 0,0 l/m 0 min 2 min 0 W/m 4,2 km/h (1 Bft) 97,87 %
17.04.2017 03:24 5,6 C 5,0 C 3,9 C 90 % 15 lf 1016,8 hPa 0,0 l/m 0 min 2 min 0 W/m 4,2 km/h (1 Bft) 97,87 %
17.04.2017 03:26 5,6 C 5,0 C 3,9 C 90 % 15 lf 1016,8 hPa 0,0 l/m 0 min 2 min 0 W/m 4,2 km/h (1 Bft) 95,74 %
17.04.2017 03:28 5,6 C 5,0 C 3,9 C 90 % 15 lf 1016,8 hPa 0,0 l/m 0 min 2 min 0 W/m 4,2 km/h (1 Bft) 100,00 %
17.04.2017 03:30 5,6 C 5,0 C 3,9 C 90 % 15 lf 1016,7 hPa 0,0 l/m 0 min 2 min 0 W/m 2,1 km/h (1 Bft) 100,00 %
17.04.2017 03:32 5,6 C 5,0 C 3,9 C 91 % 15 lf 1016,7 hPa 0,0 l/m 0 min 2 min 0 W/m 4,2 km/h (1 Bft) 97,87 %
17.04.2017 03:34 5,5 C 5,0 C 3,9 C 91 % 15 lf 1016,7 hPa 0,2 l/m 0 min 2 min 0 W/m 4,2 km/h (1 Bft) 100,00 %
17.04.2017 03:36 5,5 C 5,0 C 3,9 C 91 % 15 lf 1016,6 hPa 0,0 l/m 0 min 2 min 0 W/m 4,2 km/h (1 Bft) 97,87 %
17.04.2017 03:38 5,5 C 5,0 C 3,9 C 91 % 15 lf 1016,5 hPa 0,0 l/m 0 min 2 min 0 W/m 4,2 km/h (1 Bft) 97,87 %
17.04.2017 03:40 5,5 C 5,0 C 3,9 C 91 % 15 lf 1016,5 hPa 0,0 l/m 0 min 2 min 0 W/m 6,3 km/h (2 Bft) 100,00 %
17.04.2017 03:42 5,4 C 5,0 C 3,9 C 91 % 15 lf 1016,4 hPa 0,0 l/m 0 min 2 min 0 W/m 6,3 km/h (2 Bft) 97,87 %
17.04.2017 03:44 5,4 C 5,0 C 3,9 C 91 % 15 lf 1016,4 hPa 0,0 l/m 0 min 2 min 0 W/m 2,1 km/h (1 Bft) 97,87 %
17.04.2017 03:46 5,4 C 5,0 C 3,9 C 91 % 15 lf 1016,4 hPa 0,0 l/m 0 min 2 min 0 W/m 0,0 km/h (0 Bft) 95,74 %
17.04.2017 03:48 5,4 C 5,0 C 3,9 C 91 % 15 lf 1016,3 hPa 0,0 l/m 0 min 2 min 0 W/m 6,3 km/h (2 Bft) 93,62 %
17.04.2017 03:50 5,4 C 5,0 C 3,9 C 91 % 15 lf 1016,4 hPa 0,0 l/m 0 min 2 min 0 W/m 6,3 km/h (2 Bft) 97,87 %
17.04.2017 03:52 5,4 C 5,0 C 3,9 C 91 % 15 lf 1016,3 hPa 0,0 l/m 0 min 2 min 0 W/m 4,2 km/h (1 Bft) 93,48 %
17.04.2017 03:54 5,4 C 5,0 C 3,9 C 91 % 15 lf 1016,3 hPa 0,0 l/m 0 min 0 min 0 W/m 6,3 km/h (2 Bft) 97,87 %
17.04.2017 03:56 5,4 C 5,0 C 3,9 C 91 % 15 lf 1016,1 hPa 0,2 l/m 0 min 0 min 0 W/m 2,1 km/h (1 Bft) 91,49 %
17.04.2017 03:58 5,3 C 5,0 C 3,9 C 91 % 15 lf 1016,1 hPa 0,0 l/m 0 min 0 min 0 W/m 0,0 km/h (0 Bft) 91,49 %
17.04.2017 04:00 5,3 C 4,4 C 3,9 C 91 % 15 lf 1016,1 hPa 0,0 l/m 0 min 0 min 0 W/m 0,0 km/h (0 Bft) 91,49 %
17.04.2017 04:05 5,3 C 4,4 C 3,9 C 91 % 15 lf 1016,0 hPa 0,0 l/m 0 min 0 min 0 W/m 6,3 km/h (2 Bft) 11,11 %
17.04.2017 04:06 5,3 C 4,4 C 3,9 C 91 % 15 lf 1016,0 hPa 0,0 l/m 0 min 0 min 0 W/m 6,3 km/h (2 Bft) 4,76 %
17.04.2017 04:08 5,3 C 4,4 C 3,9 C 92 % 15 lf 1016,0 hPa 0,0 l/m 0 min 0 min 0 W/m 8,4 km/h (2 Bft) 100,00 %
17.04.2017 04:10 5,3 C 5,0 C 3,9 C 92 % 15 lf 1015,9 hPa 0,0 l/m 0 min 0 min 0 W/m 8,4 km/h (2 Bft) 100,00 %
17.04.2017 04:12 5,2 C 4,4 C 3,9 C 92 % 15 lf 1015,8 hPa 0,0 l/m 0 min 0 min 0 W/m 10,5 km/h (2 Bft) 95,74 %
17.04.2017 04:14 5,2 C 4,4 C 3,9 C 92 % 15 lf 1015,8 hPa 0,0 l/m 0 min 0 min 0 W/m 10,5 km/h (2 Bft) 89,36 %
17.04.2017 04:16 5,2 C 4,4 C 3,9 C 92 % 15 lf 1015,8 hPa 0,0 l/m 0 min 0 min 0 W/m 12,6 km/h (3 Bft) 95,65 %
17.04.2017 04:18 5,2 C 4,4 C 3,9 C 92 % 15 lf 1015,8 hPa 0,0 l/m 0 min 0 min 0 W/m 14,6 km/h (3 Bft) 91,49 %
17.04.2017 04:20 5,2 C 4,4 C 3,9 C 92 % 15 lf 1015,7 hPa 0,0 l/m 0 min 2 min 0 W/m 12,6 km/h (3 Bft) 93,62 %
17.04.2017 04:22 5,2 C 4,4 C 3,9 C 92 % 15 lf 1015,7 hPa 0,0 l/m 0 min 0 min 0 W/m 14,6 km/h (3 Bft) 93,62 %
17.04.2017 04:24 5,1 C 4,4 C 3,9 C 92 % 15 lf 1015,7 hPa 0,0 l/m 0 min 0 min 0 W/m 10,5 km/h (2 Bft) 95,74 %
17.04.2017 04:26 5,1 C 4,4 C 3,9 C 92 % 15 lf 1015,6 hPa 0,0 l/m 0 min 2 min 0 W/m 8,4 km/h (2 Bft) 97,87 %
17.04.2017 04:28 5,1 C 4,4 C 3,9 C 92 % 15 lf 1015,6 hPa 0,0 l/m 0 min 2 min 0 W/m 6,3 km/h (2 Bft) 100,00 %
17.04.2017 04:30 5,1 C 5,0 C 3,9 C 92 % 15 lf 1015,5 hPa 0,0 l/m 0 min 2 min 0 W/m 6,3 km/h (2 Bft) 95,74 %
17.04.2017 04:32 5,1 C 5,0 C 3,9 C 92 % 15 lf 1015,4 hPa 0,0 l/m 0 min 2 min 0 W/m 12,6 km/h (3 Bft) 95,74 %
17.04.2017 04:34 5,1 C 5,0 C 3,9 C 92 % 15 lf 1015,4 hPa 0,0 l/m 0 min 2 min 0 W/m 12,6 km/h (3 Bft) 95,74 %
17.04.2017 04:36 5,1 C 5,0 C 3,9 C 93 % 15 lf 1015,3 hPa 0,0 l/m 0 min 2 min 0 W/m 14,6 km/h (3 Bft) 95,74 %
17.04.2017 04:38 5,1 C 4,4 C 3,9 C 93 % 15 lf 1015,3 hPa 0,0 l/m 0 min 2 min 0 W/m 16,7 km/h (3 Bft) 97,87 %
17.04.2017 04:40 5,1 C 4,4 C 3,9 C 93 % 15 lf 1015,3 hPa 0,0 l/m 0 min 2 min 0 W/m 12,6 km/h (3 Bft) 97,83 %
17.04.2017 04:42 5,0 C 4,4 C 3,3 C 93 % 15 lf 1015,3 hPa 0,0 l/m 0 min 2 min 0 W/m 14,6 km/h (3 Bft) 93,62 %
17.04.2017 04:44 5,0 C 4,4 C 3,3 C 93 % 15 lf 1015,3 hPa 0,0 l/m 0 min 2 min 0 W/m 8,4 km/h (2 Bft) 93,62 %
17.04.2017 04:46 5,0 C 4,4 C 3,3 C 93 % 15 lf 1015,2 hPa 0,2 l/m 0 min 2 min 0 W/m 10,5 km/h (2 Bft) 93,62 %
17.04.2017 04:48 5,0 C 4,4 C 3,3 C 93 % 15 lf 1015,2 hPa 0,0 l/m 0 min 2 min 0 W/m 4,2 km/h (1 Bft) 95,74 %
17.04.2017 04:50 5,0 C 4,4 C 3,3 C 93 % 15 lf 1015,1 hPa 0,0 l/m 0 min 2 min 0 W/m 12,6 km/h (3 Bft) 93,48 %
17.04.2017 04:52 4,9 C 4,4 C 3,9 C 93 % 15 lf 1015,1 hPa 0,0 l/m 0 min 2 min 0 W/m 10,5 km/h (2 Bft) 89,36 %
17.04.2017 04:54 4,9 C 4,4 C 3,9 C 93 % 15 lf 1015,2 hPa 0,0 l/m 0 min 2 min 0 W/m 10,5 km/h (2 Bft) 95,74 %
17.04.2017 04:56 4,9 C 4,4 C 3,3 C 93 % 15 lf 1015,1 hPa 0,0 l/m 0 min 2 min 0 W/m 14,6 km/h (3 Bft) 97,87 %
17.04.2017 04:58 4,9 C 4,4 C 3,3 C 93 % 15 lf 1015,1 hPa 0,2 l/m 0 min 2 min 0 W/m 8,4 km/h (2 Bft) 95,74 %
17.04.2017 05:00 4,9 C 4,4 C 3,3 C 93 % 15 lf 1015,1 hPa 0,0 l/m 0 min 2 min 0 W/m 6,3 km/h (2 Bft) 91,49 %
17.04.2017 05:02 4,9 C 4,4 C 3,3 C 93 % 15 lf 1015,0 hPa 0,2 l/m 0 min 2 min 0 W/m 14,6 km/h (3 Bft) 97,83 %
17.04.2017 05:04 4,9 C 4,4 C 3,3 C 93 % 15 lf 1015,0 hPa 0,0 l/m 0 min 2 min 0 W/m 10,5 km/h (2 Bft) 95,74 %
17.04.2017 05:06 4,9 C 4,4 C 3,3 C 93 % 15 lf 1014,9 hPa 0,0 l/m 0 min 2 min 0 W/m 6,3 km/h (2 Bft) 97,87 %
17.04.2017 05:08 4,9 C 4,4 C 3,3 C 93 % 15 lf 1015,0 hPa 0,0 l/m 0 min 2 min 0 W/m 10,5 km/h (2 Bft) 97,87 %
17.04.2017 05:10 4,9 C 4,4 C 3,9 C 93 % 15 lf 1015,0 hPa 0,0 l/m 0 min 2 min 0 W/m 10,5 km/h (2 Bft) 100,00 %
17.04.2017 05:12 4,9 C 4,4 C 3,3 C 93 % 15 lf 1014,9 hPa 0,0 l/m 0 min 2 min 0 W/m 12,6 km/h (3 Bft) 100,00 %
17.04.2017 05:14 4,9 C 4,4 C 3,3 C 94 % 15 lf 1015,0 hPa 0,0 l/m 0 min 2 min 0 W/m 14,6 km/h (3 Bft) 97,83 %
17.04.2017 05:16 4,9 C 4,4 C 3,3 C 94 % 15 lf 1014,9 hPa 0,0 l/m 0 min 2 min 0 W/m 6,3 km/h (2 Bft) 95,74 %
17.04.2017 05:18 4,8 C 4,4 C 3,3 C 94 % 15 lf 1014,9 hPa 0,2 l/m 0 min 2 min 0 W/m 12,6 km/h (3 Bft) 93,62 %
17.04.2017 05:20 4,8 C 4,4 C 3,3 C 94 % 15 lf 1014,8 hPa 0,2 l/m 0 min 2 min 0 W/m 6,3 km/h (2 Bft) 100,00 %
17.04.2017 05:22 4,8 C 4,4 C 3,3 C 94 % 15 lf 1014,8 hPa 0,0 l/m 0 min 2 min 0 W/m 10,5 km/h (2 Bft) 97,87 %
17.04.2017 05:24 4,8 C 4,4 C 3,3 C 94 % 15 lf 1014,7 hPa 0,0 l/m 0 min 2 min 0 W/m 10,5 km/h (2 Bft) 100,00 %
17.04.2017 05:26 4,8 C 4,4 C 3,3 C 94 % 15 lf 1014,7 hPa 0,2 l/m 0 min 2 min 0 W/m 12,6 km/h (3 Bft) 97,83 %
17.04.2017 05:28 4,8 C 4,4 C 3,3 C 94 % 15 lf 1014,8 hPa 0,0 l/m 0 min 2 min 0 W/m 10,5 km/h (2 Bft) 97,87 %
17.04.2017 05:30 4,8 C 4,4 C 3,3 C 94 % 15 lf 1014,8 hPa 0,2 l/m 0 min 2 min 0 W/m 12,6 km/h (3 Bft) 100,00 %
17.04.2017 05:32 4,8 C 4,4 C 3,3 C 94 % 15 lf 1014,9 hPa 0,0 l/m 0 min 2 min 0 W/m 12,6 km/h (3 Bft) 97,87 %
17.04.2017 05:34 4,8 C 4,4 C 3,3 C 94 % 15 lf 1014,9 hPa 0,0 l/m 0 min 2 min 0 W/m 14,6 km/h (3 Bft) 100,00 %
17.04.2017 05:36 4,7 C 4,4 C 3,3 C 94 % 15 lf 1015,0 hPa 0,2 l/m 0 min 2 min 0 W/m 16,7 km/h (3 Bft) 100,00 %
17.04.2017 05:38 4,7 C 4,4 C 3,3 C 94 % 15 lf 1014,9 hPa 0,2 l/m 0 min 2 min 0 W/m 16,7 km/h (3 Bft) 97,83 %
17.04.2017 05:40 4,7 C 4,4 C 3,3 C 94 % 15 lf 1014,8 hPa 0,2 l/m 0 min 2 min 0 W/m 14,6 km/h (3 Bft) 100,00 %
17.04.2017 05:42 4,7 C 4,4 C 3,3 C 94 % 15 lf 1014,8 hPa 0,2 l/m 0 min 2 min 0 W/m 23,0 km/h (4 Bft) 97,87 %
17.04.2017 05:44 4,7 C 4,4 C 3,3 C 94 % 15 lf 1014,7 hPa 0,0 l/m 0 min 2 min 0 W/m 18,8 km/h (3 Bft) 100,00 %
17.04.2017 05:46 4,6 C 4,4 C 3,3 C 94 % 15 lf 1014,7 hPa 0,2 l/m 0 min 2 min 0 W/m 14,6 km/h (3 Bft) 100,00 %
17.04.2017 05:48 4,6 C 4,4 C 3,3 C 94 % 15 lf 1014,7 hPa 0,2 l/m 0 min 2 min 0 W/m 20,9 km/h (4 Bft) 100,00 %
17.04.2017 05:50 4,6 C 4,4 C 3,3 C 94 % 15 lf 1014,8 hPa 0,0 l/m 0 min 2 min 0 W/m 18,8 km/h (3 Bft) 97,87 %
17.04.2017 05:52 4,5 C 3,9 C 3,3 C 94 % 15 lf 1014,8 hPa 0,0 l/m 0 min 2 min 0 W/m 14,6 km/h (3 Bft) 97,87 %
17.04.2017 05:54 4,5 C 3,9 C 2,8 C 94 % 15 lf 1014,8 hPa 0,2 l/m 0 min 2 min 0 W/m 16,7 km/h (3 Bft) 100,00 %
17.04.2017 05:56 4,4 C 3,9 C 3,3 C 94 % 15 lf 1014,9 hPa 0,2 l/m 0 min 2 min 0 W/m 20,9 km/h (4 Bft) 95,74 %
17.04.2017 05:58 4,4 C 3,9 C 2,8 C 94 % 15 lf 1014,8 hPa 0,0 l/m 0 min 2 min 0 W/m 16,7 km/h (3 Bft) 100,00 %
17.04.2017 06:00 4,4 C 3,9 C 2,8 C 94 % 15 lf 1014,7 hPa 0,0 l/m 0 min 2 min 0 W/m 16,7 km/h (3 Bft) 100,00 %
17.04.2017 06:02 4,4 C 3,9 C 2,8 C 94 % 15 lf 1014,7 hPa 0,2 l/m 0 min 2 min 0 W/m 14,6 km/h (3 Bft) 100,00 %
17.04.2017 06:04 4,3 C 3,9 C 3,3 C 94 % 15 lf 1014,6 hPa 0,0 l/m 0 min 2 min 0 W/m 8,4 km/h (2 Bft) 100,00 %
17.04.2017 06:06 4,3 C 3,9 C 2,8 C 94 % 15 lf 1014,5 hPa 0,2 l/m 0 min 2 min 0 W/m 16,7 km/h (3 Bft) 97,87 %
17.04.2017 06:08 4,3 C 3,9 C 2,8 C 94 % 15 lf 1014,7 hPa 0,0 l/m 0 min 2 min 0 W/m 14,6 km/h (3 Bft) 97,87 %
17.04.2017 06:10 4,3 C 3,9 C 2,8 C 94 % 15 lf 1014,7 hPa 0,0 l/m 0 min 2 min 0 W/m 29,3 km/h (5 Bft) 97,87 %
17.04.2017 06:12 4,2 C 3,9 C 2,8 C 94 % 15 lf 1014,8 hPa 0,0 l/m 0 min 2 min 0 W/m 25,1 km/h (4 Bft) 100,00 %
17.04.2017 06:14 4,2 C 3,9 C 2,8 C 94 % 15 lf 1014,8 hPa 0,0 l/m 0 min 2 min 0 W/m 27,2 km/h (4 Bft) 97,87 %
17.04.2017 06:16 4,1 C 3,9 C 2,8 C 94 % 15 lf 1014,7 hPa 0,2 l/m 0 min 2 min 0 W/m 27,2 km/h (4 Bft) 97,87 %
17.04.2017 06:18 4,1 C 3,9 C 2,8 C 94 % 15 lf 1014,6 hPa 0,0 l/m 0 min 2 min 0 W/m 27,2 km/h (4 Bft) 100,00 %
17.04.2017 06:20 4,1 C 3,9 C 2,8 C 94 % 15 lf 1014,6 hPa 0,0 l/m 0 min 2 min 0 W/m 23,0 km/h (4 Bft) 93,62 %
17.04.2017 06:22 4,1 C 3,9 C 2,8 C 94 % 15 lf 1014,5 hPa 0,0 l/m 0 min 2 min 0 W/m 20,9 km/h (4 Bft) 95,74 %
17.04.2017 06:24 4,1 C 3,9 C 2,8 C 94 % 15 lf 1014,5 hPa 0,2 l/m 0 min 2 min 0 W/m 20,9 km/h (4 Bft) 97,83 %
17.04.2017 06:26 4,1 C 3,9 C 2,8 C 95 % 15 lf 1014,6 hPa 0,0 l/m 0 min 2 min 0 W/m 20,9 km/h (4 Bft) 95,74 %
17.04.2017 06:28 4,0 C 3,9 C 2,8 C 95 % 15 lf 1014,5 hPa 0,0 l/m 0 min 2 min 0 W/m 20,9 km/h (4 Bft) 95,74 %
17.04.2017 06:30 4,0 C 3,3 C 2,8 C 95 % 15 lf 1014,5 hPa 0,0 l/m 0 min 2 min 0 W/m 23,0 km/h (4 Bft) 95,74 %
17.04.2017 06:32 3,9 C 3,3 C 2,2 C 95 % 15 lf 1014,5 hPa 0,0 l/m 0 min 2 min 0 W/m 20,9 km/h (4 Bft) 95,74 %
17.04.2017 06:34 3,9 C 3,3 C 2,2 C 95 % 15 lf 1014,6 hPa 0,2 l/m 0 min 2 min 0 W/m 25,1 km/h (4 Bft) 91,49 %
17.04.2017 06:36 3,8 C 3,3 C 2,2 C 95 % 15 lf 1014,6 hPa 0,0 l/m 0 min 2 min 0 W/m 27,2 km/h (4 Bft) 91,30 %
17.04.2017 06:38 3,8 C 3,3 C 2,2 C 95 % 15 lf 1014,8 hPa 0,2 l/m 0 min 2 min 0 W/m 20,9 km/h (4 Bft) 97,87 %
17.04.2017 06:40 3,7 C 3,3 C 2,2 C 95 % 15 lf 1014,8 hPa 0,0 l/m 0 min 2 min 0 W/m 23,0 km/h (4 Bft) 97,87 %
17.04.2017 06:42 3,6 C 3,3 C 2,2 C 95 % 15 lf 1014,9 hPa 0,0 l/m 0 min 2 min 0 W/m 20,9 km/h (4 Bft) 95,74 %
17.04.2017 06:44 3,6 C 3,3 C 2,2 C 95 % 15 lf 1014,9 hPa 0,0 l/m 0 min 2 min 0 W/m 23,0 km/h (4 Bft) 100,00 %
17.04.2017 06:46 3,6 C 3,3 C 2,2 C 95 % 15 lf 1014,9 hPa 0,2 l/m 0 min 2 min 0 W/m 18,8 km/h (3 Bft) 97,87 %
17.04.2017 06:48 3,5 C 3,3 C 2,2 C 95 % 15 lf 1014,7 hPa 0,2 l/m 0 min 2 min 4 W/m 20,9 km/h (4 Bft) 97,83 %
17.04.2017 06:50 3,5 C 3,3 C 2,2 C 95 % 15 lf 1014,7 hPa 0,0 l/m 0 min 2 min 5 W/m 16,7 km/h (3 Bft) 95,74 %
17.04.2017 06:52 3,5 C 3,3 C 2,2 C 95 % 15 lf 1014,6 hPa 0,2 l/m 0 min 2 min 5 W/m 12,6 km/h (3 Bft) 93,62 %
17.04.2017 06:54 3,4 C 3,3 C 2,2 C 95 % 15 lf 1014,6 hPa 0,0 l/m 0 min 2 min 5 W/m 18,8 km/h (3 Bft) 95,74 %
17.04.2017 06:56 3,4 C 3,3 C 2,2 C 95 % 15 lf 1014,6 hPa 0,2 l/m 0 min 2 min 5 W/m 18,8 km/h (3 Bft) 97,87 %
17.04.2017 06:58 3,4 C 3,3 C 2,2 C 95 % 15 lf 1014,6 hPa 0,0 l/m 0 min 2 min 5 W/m 16,7 km/h (3 Bft) 93,48 %
17.04.2017 07:00 3,4 C 3,3 C 2,2 C 95 % 15 lf 1014,7 hPa 0,0 l/m 0 min 2 min 5 W/m 20,9 km/h (4 Bft) 93,62 %
17.04.2017 07:02 3,4 C 3,3 C 2,2 C 95 % 15 lf 1014,8 hPa 0,2 l/m 0 min 2 min 5 W/m 14,6 km/h (3 Bft) 100,00 %
17.04.2017 07:04 3,4 C 3,3 C 2,2 C 95 % 15 lf 1015,0 hPa 0,2 l/m 0 min 2 min 5 W/m 16,7 km/h (3 Bft) 95,74 %
17.04.2017 07:06 3,4 C 3,3 C 2,2 C 95 % 15 lf 1015,0 hPa 0,0 l/m 0 min 2 min 5 W/m 16,7 km/h (3 Bft) 95,74 %
17.04.2017 07:08 3,4 C 3,3 C 2,2 C 95 % 15 lf 1015,0 hPa 0,2 l/m 0 min 2 min 6 W/m 16,7 km/h (3 Bft) 91,49 %
17.04.2017 07:10 3,4 C 3,3 C 2,2 C 95 % 15 lf 1015,0 hPa 0,2 l/m 0 min 2 min 7 W/m 18,8 km/h (3 Bft) 95,65 %
17.04.2017 07:12 3,4 C 3,3 C 2,2 C 95 % 15 lf 1015,0 hPa 0,0 l/m 0 min 2 min 7 W/m 16,7 km/h (3 Bft) 95,74 %
17.04.2017 07:14 3,4 C 3,3 C 2,2 C 95 % 15 lf 1015,0 hPa 0,2 l/m 0 min 2 min 9 W/m 10,5 km/h (2 Bft) 97,87 %
17.04.2017 07:16 3,5 C 3,3 C 2,2 C 95 % 15 lf 1015,0 hPa 0,2 l/m 0 min 2 min 9 W/m 14,6 km/h (3 Bft) 97,87 %
17.04.2017 07:18 3,5 C 3,3 C 2,2 C 95 % 15 lf 1015,0 hPa 0,0 l/m 0 min 2 min 8 W/m 12,6 km/h (3 Bft) 97,87 %
17.04.2017 07:20 3,5 C 3,3 C 2,2 C 95 % 15 lf 1015,0 hPa 0,0 l/m 0 min 2 min 8 W/m 12,6 km/h (3 Bft) 95,74 %
17.04.2017 07:22 3,5 C 3,3 C 2,2 C 95 % 15 lf 1015,0 hPa 0,2 l/m 0 min 2 min 9 W/m 12,6 km/h (3 Bft) 95,65 %
17.04.2017 07:24 3,5 C 3,3 C 2,2 C 95 % 15 lf 1015,0 hPa 0,0 l/m 0 min 2 min 9 W/m 16,7 km/h (3 Bft) 100,00 %
17.04.2017 07:26 3,5 C 3,3 C 2,2 C 95 % 15 lf 1014,9 hPa 0,2 l/m 0 min 2 min 10 W/m 16,7 km/h (3 Bft) 95,74 %
17.04.2017 07:28 3,6 C 3,3 C 2,2 C 95 % 15 lf 1014,9 hPa 0,0 l/m 0 min 2 min 11 W/m 20,9 km/h (4 Bft) 95,74 %
17.04.2017 07:30 3,6 C 3,3 C 2,2 C 95 % 15 lf 1014,9 hPa 0,0 l/m 0 min 2 min 11 W/m 18,8 km/h (3 Bft) 97,87 %
17.04.2017 07:32 3,6 C 3,3 C 2,2 C 95 % 15 lf 1015,0 hPa 0,2 l/m 0 min 2 min 11 W/m 14,6 km/h (3 Bft) 97,87 %
17.04.2017 07:34 3,6 C 3,3 C 2,2 C 95 % 15 lf 1015,0 hPa 0,2 l/m 0 min 2 min 11 W/m 16,7 km/h (3 Bft) 97,83 %
17.04.2017 07:36 3,5 C 3,3 C 2,2 C 95 % 15 lf 1015,0 hPa 0,0 l/m 0 min 2 min 11 W/m 14,6 km/h (3 Bft) 97,87 %
17.04.2017 07:38 3,5 C 3,3 C 2,2 C 95 % 15 lf 1015,0 hPa 0,2 l/m 0 min 2 min 11 W/m 12,6 km/h (3 Bft) 93,62 %
17.04.2017 07:40 3,5 C 3,3 C 2,2 C 95 % 15 lf 1015,1 hPa 0,2 l/m 0 min 2 min 11 W/m 12,6 km/h (3 Bft) 95,74 %
17.04.2017 07:42 3,5 C 3,3 C 2,2 C 95 % 15 lf 1015,1 hPa 0,0 l/m 0 min 2 min 11 W/m 18,8 km/h (3 Bft) 93,62 %
17.04.2017 07:44 3,5 C 3,3 C 2,2 C 95 % 15 lf 1015,1 hPa 0,4 l/m 0 min 2 min 11 W/m 12,6 km/h (3 Bft) 93,62 %
17.04.2017 07:46 3,4 C 3,3 C 2,2 C 95 % 15 lf 1015,1 hPa 0,0 l/m 0 min 2 min 11 W/m 18,8 km/h (3 Bft) 97,83 %
17.04.2017 07:48 3,4 C 3,3 C 2,2 C 95 % 15 lf 1015,1 hPa 0,2 l/m 0 min 2 min 11 W/m 16,7 km/h (3 Bft) 97,87 %
17.04.2017 07:50 3,4 C 3,3 C 2,2 C 95 % 15 lf 1015,1 hPa 0,0 l/m 0 min 2 min 12 W/m 12,6 km/h (3 Bft) 93,62 %
17.04.2017 07:52 3,4 C 3,3 C 2,2 C 95 % 15 lf 1015,1 hPa 0,2 l/m 0 min 2 min 15 W/m 12,6 km/h (3 Bft) 95,74 %
17.04.2017 07:54 3,3 C 3,3 C 2,2 C 95 % 15 lf 1015,1 hPa 0,0 l/m 0 min 2 min 18 W/m 12,6 km/h (3 Bft) 97,87 %
17.04.2017 07:56 3,3 C 3,3 C 2,2 C 95 % 15 lf 1015,1 hPa 0,0 l/m 0 min 2 min 19 W/m 12,6 km/h (3 Bft) 100,00 %
17.04.2017 07:58 3,3 C 3,3 C 2,2 C 95 % 15 lf 1015,1 hPa 0,2 l/m 0 min 2 min 24 W/m 16,7 km/h (3 Bft) 100,00 %
17.04.2017 08:00 3,3 C 3,3 C 2,2 C 95 % 15 lf 1015,1 hPa 0,2 l/m 0 min 2 min 29 W/m 8,4 km/h (2 Bft) 97,87 %
17.04.2017 08:02 3,3 C 3,3 C 2,2 C 95 % 15 lf 1015,1 hPa 0,0 l/m 0 min 2 min 34 W/m 10,5 km/h (2 Bft) 89,36 %
17.04.2017 08:04 3,3 C 3,3 C 2,2 C 95 % 15 lf 1015,2 hPa 0,0 l/m 0 min 2 min 40 W/m 10,5 km/h (2 Bft) 100,00 %
17.04.2017 08:06 3,3 C 3,3 C 2,2 C 95 % 15 lf 1015,1 hPa 0,0 l/m 0 min 2 min 44 W/m 14,6 km/h (3 Bft) 97,87 %
17.04.2017 08:08 3,3 C 3,3 C 2,2 C 95 % 15 lf 1015,2 hPa 0,0 l/m 0 min 2 min 45 W/m 14,6 km/h (3 Bft) 100,00 %
17.04.2017 08:10 3,3 C 3,3 C 2,2 C 95 % 15 lf 1015,2 hPa 0,0 l/m 0 min 2 min 45 W/m 12,6 km/h (3 Bft) 97,87 %
17.04.2017 08:12 3,3 C 3,3 C 2,2 C 96 % 15 lf 1015,3 hPa 0,0 l/m 0 min 2 min 47 W/m 14,6 km/h (3 Bft) 91,49 %
17.04.2017 08:14 3,3 C 3,3 C 2,2 C 96 % 15 lf 1015,2 hPa 0,0 l/m 0 min 2 min 55 W/m 14,6 km/h (3 Bft) 97,87 %
17.04.2017 08:16 3,3 C 3,3 C 2,8 C 96 % 15 lf 1015,3 hPa 0,0 l/m 0 min 2 min 62 W/m 14,6 km/h (3 Bft) 91,49 %
17.04.2017 08:18 3,3 C 3,3 C 2,8 C 96 % 15 lf 1015,2 hPa 0,0 l/m 0 min 2 min 71 W/m 14,6 km/h (3 Bft) 93,62 %
17.04.2017 08:20 3,3 C 3,3 C 2,8 C 96 % 15 lf 1015,3 hPa 0,0 l/m 0 min 2 min 83 W/m 14,6 km/h (3 Bft) 95,65 %
17.04.2017 08:22 3,3 C 3,9 C 2,8 C 96 % 15 lf 1015,3 hPa 0,0 l/m 0 min 2 min 96 W/m 14,6 km/h (3 Bft) 97,87 %
17.04.2017 08:24 3,3 C 3,9 C 2,8 C 96 % 15 lf 1015,4 hPa 0,2 l/m 0 min 2 min 100 W/m 16,7 km/h (3 Bft) 95,74 %
17.04.2017 08:26 3,3 C 3,9 C 2,8 C 96 % 15 lf 1015,5 hPa 0,0 l/m 0 min 2 min 78 W/m 14,6 km/h (3 Bft) 97,87 %
17.04.2017 08:28 3,3 C 3,9 C 2,8 C 96 % 15 lf 1015,4 hPa 0,0 l/m 0 min 2 min 72 W/m 14,6 km/h (3 Bft) 97,87 %
17.04.2017 08:30 3,3 C 3,9 C 2,8 C 96 % 15 lf 1015,4 hPa 0,0 l/m 0 min 2 min 85 W/m 16,7 km/h (3 Bft) 97,87 %
17.04.2017 08:32 3,3 C 3,9 C 2,8 C 96 % 15 lf 1015,4 hPa 0,0 l/m 0 min 2 min 98 W/m 16,7 km/h (3 Bft) 93,48 %
17.04.2017 08:34 3,3 C 3,9 C 2,8 C 96 % 15 lf 1015,4 hPa 0,0 l/m 0 min 2 min 100 W/m 16,7 km/h (3 Bft) 95,74 %
17.04.2017 08:36 3,3 C 3,9 C 2,8 C 96 % 15 lf 1015,3 hPa 0,0 l/m 0 min 2 min 96 W/m 23,0 km/h (4 Bft) 97,87 %
17.04.2017 08:38 3,3 C 3,3 C 2,8 C 96 % 15 lf 1015,4 hPa 0,0 l/m 0 min 2 min 81 W/m 20,9 km/h (4 Bft) 97,87 %
17.04.2017 08:40 3,3 C 3,3 C 2,8 C 96 % 15 lf 1015,4 hPa 0,0 l/m 0 min 2 min 72 W/m 16,7 km/h (3 Bft) 97,87 %
17.04.2017 08:42 3,3 C 3,9 C 2,8 C 96 % 15 lf 1015,5 hPa 0,2 l/m 0 min 2 min 80 W/m 16,7 km/h (3 Bft) 97,87 %
17.04.2017 08:44 3,3 C 3,9 C 2,8 C 96 % 15 lf 1015,5 hPa 0,0 l/m 0 min 2 min 99 W/m 14,6 km/h (3 Bft) 97,83 %
17.04.2017 08:46 3,3 C 3,9 C 2,8 C 96 % 15 lf 1015,4 hPa 0,0 l/m 0 min 2 min 113 W/m 12,6 km/h (3 Bft) 97,87 %
17.04.2017 08:48 3,4 C 3,9 C 2,8 C 96 % 15 lf 1015,5 hPa 0,0 l/m 0 min 2 min 125 W/m 18,8 km/h (3 Bft) 95,74 %
17.04.2017 08:50 3,4 C 3,9 C 2,8 C 96 % 15 lf 1015,5 hPa 0,0 l/m 0 min 2 min 130 W/m 16,7 km/h (3 Bft) 93,62 %
17.04.2017 08:52 3,4 C 3,9 C 2,8 C 96 % 15 lf 1015,5 hPa 0,0 l/m 0 min 2 min 138 W/m 14,6 km/h (3 Bft) 97,87 %
17.04.2017 08:54 3,4 C 3,9 C 2,8 C 96 % 15 lf 1015,6 hPa 0,0 l/m 0 min 2 min 150 W/m 16,7 km/h (3 Bft) 97,87 %
17.04.2017 08:56 3,4 C 4,4 C 2,8 C 96 % 15 lf 1015,5 hPa 0,0 l/m 0 min 2 min 145 W/m 14,6 km/h (3 Bft) 97,83 %
17.04.2017 08:58 3,4 C 4,4 C 3,3 C 96 % 15 lf 1015,6 hPa 0,0 l/m 0 min 0 min 153 W/m 16,7 km/h (3 Bft) 93,62 %
17.04.2017 09:00 3,4 C 4,4 C 3,3 C 96 % 15 lf 1015,6 hPa 0,0 l/m 0 min 0 min 167 W/m 18,8 km/h (3 Bft) 95,74 %
17.04.2017 09:02 3,4 C 4,4 C 2,8 C 96 % 15 lf 1015,8 hPa 0,0 l/m 0 min 2 min 182 W/m 18,8 km/h (3 Bft) 93,62 %
17.04.2017 09:04 3,4 C 4,4 C 3,3 C 96 % 15 lf 1015,7 hPa 0,0 l/m 2 min 2 min 197 W/m 12,6 km/h (3 Bft) 95,74 %
17.04.2017 09:06 3,5 C 4,4 C 3,3 C 96 % 15 lf 1015,7 hPa 0,0 l/m 0 min 0 min 168 W/m 16,7 km/h (3 Bft) 93,48 %
17.04.2017 09:08 3,5 C 4,4 C 3,3 C 96 % 15 lf 1015,8 hPa 0,0 l/m 0 min 2 min 140 W/m 16,7 km/h (3 Bft) 95,74 %
17.04.2017 09:10 3,6 C 4,4 C 3,3 C 96 % 15 lf 1015,7 hPa 0,0 l/m 0 min 2 min 134 W/m 10,5 km/h (2 Bft) 93,62 %
17.04.2017 09:12 3,6 C 4,4 C 3,3 C 96 % 15 lf 1015,8 hPa 0,0 l/m 0 min 0 min 160 W/m 18,8 km/h (3 Bft) 95,74 %
17.04.2017 09:14 3,6 C 4,4 C 3,3 C 96 % 15 lf 1015,8 hPa 0,0 l/m 0 min 2 min 180 W/m 16,7 km/h (3 Bft) 93,62 %
17.04.2017 09:16 3,6 C 4,4 C 3,3 C 96 % 15 lf 1015,9 hPa 0,0 l/m 2 min 2 min 203 W/m 14,6 km/h (3 Bft) 87,23 %
17.04.2017 09:18 3,7 C 5,0 C 3,3 C 96 % 15 lf 1015,9 hPa 0,0 l/m 2 min 0 min 204 W/m 16,7 km/h (3 Bft) 95,65 %
17.04.2017 09:20 3,7 C 5,0 C 3,9 C 96 % 15 lf 1015,9 hPa 0,0 l/m 0 min 2 min 200 W/m 20,9 km/h (4 Bft) 89,36 %
17.04.2017 09:22 3,7 C 4,4 C 3,3 C 96 % 15 lf 1015,9 hPa 0,0 l/m 0 min 2 min 187 W/m 16,7 km/h (3 Bft) 95,74 %
17.04.2017 09:24 3,7 C 5,0 C 3,9 C 96 % 15 lf 1015,8 hPa 0,0 l/m 0 min 2 min 177 W/m 14,6 km/h (3 Bft) 93,62 %
17.04.2017 09:26 3,7 C 4,4 C 3,9 C 96 % 15 lf 1015,9 hPa 0,0 l/m 0 min 2 min 150 W/m 16,7 km/h (3 Bft) 95,74 %
17.04.2017 09:28 3,8 C 5,0 C 3,9 C 96 % 15 lf 1015,8 hPa 0,0 l/m 0 min 0 min 157 W/m 10,5 km/h (2 Bft) 97,87 %
17.04.2017 09:30 3,8 C 5,0 C 3,9 C 96 % 15 lf 1015,8 hPa 0,0 l/m 0 min 0 min 152 W/m 14,6 km/h (3 Bft) 97,83 %
17.04.2017 09:32 3,9 C 5,0 C 3,9 C 96 % 15 lf 1015,8 hPa 0,0 l/m 0 min 0 min 159 W/m 16,7 km/h (3 Bft) 95,74 %
17.04.2017 09:34 3,9 C 5,0 C 3,9 C 96 % 15 lf 1015,8 hPa 0,0 l/m 0 min 0 min 184 W/m 16,7 km/h (3 Bft) 95,74 %
17.04.2017 09:36 3,9 C 5,0 C 3,9 C 96 % 15 lf 1015,8 hPa 0,0 l/m 0 min 0 min 177 W/m 14,6 km/h (3 Bft) 93,62 %
17.04.2017 09:38 3,9 C 5,0 C 3,9 C 96 % 15 lf 1015,8 hPa 0,0 l/m 0 min 0 min 189 W/m 12,6 km/h (3 Bft) 95,74 %
17.04.2017 09:40 3,9 C 5,6 C 4,4 C 96 % 15 lf 1015,8 hPa 0,0 l/m 0 min 0 min 200 W/m 18,8 km/h (3 Bft) 95,74 %
17.04.2017 09:42 4,0 C 5,6 C 4,4 C 96 % 15 lf 1015,9 hPa 0,0 l/m 0 min 0 min 201 W/m 12,6 km/h (3 Bft) 93,48 %
17.04.2017 09:44 4,1 C 5,6 C 4,4 C 96 % 15 lf 1015,9 hPa 0,0 l/m 0 min 0 min 188 W/m 14,6 km/h (3 Bft) 100,00 %
17.04.2017 09:46 4,1 C 5,6 C 4,4 C 96 % 15 lf 1015,9 hPa 0,0 l/m 0 min 0 min 190 W/m 16,7 km/h (3 Bft) 97,87 %
17.04.2017 09:48 4,1 C 5,6 C 4,4 C 96 % 15 lf 1015,9 hPa 0,0 l/m 0 min 0 min 209 W/m 16,7 km/h (3 Bft) 97,87 %
17.04.2017 09:50 4,2 C 6,1 C 4,4 C 96 % 15 lf 1015,9 hPa 0,0 l/m 0 min 0 min 181 W/m 10,5 km/h (2 Bft) 97,87 %
17.04.2017 09:52 4,2 C 5,6 C 4,4 C 96 % 15 lf 1015,9 hPa 0,0 l/m 0 min 0 min 156 W/m 12,6 km/h (3 Bft) 97,87 %
17.04.2017 09:54 4,2 C 6,1 C 4,4 C 96 % 15 lf 1015,9 hPa 0,0 l/m 0 min 0 min 207 W/m 14,6 km/h (3 Bft) 100,00 %
17.04.2017 09:56 4,3 C 6,1 C 5,0 C 96 % 15 lf 1016,0 hPa 0,0 l/m 0 min 0 min 212 W/m 14,6 km/h (3 Bft) 100,00 %
17.04.2017 09:58 4,3 C 5,6 C 4,4 C 96 % 15 lf 1016,0 hPa 0,0 l/m 0 min 0 min 177 W/m 23,0 km/h (4 Bft) 100,00 %
17.04.2017 10:00 4,3 C 5,6 C 4,4 C 96 % 15 lf 1016,0 hPa 0,0 l/m 0 min 0 min 191 W/m 16,7 km/h (3 Bft) 95,74 %
17.04.2017 10:02 4,3 C 5,6 C 4,4 C 96 % 15 lf 1016,1 hPa 0,0 l/m 0 min 0 min 215 W/m 18,8 km/h (3 Bft) 100,00 %
17.04.2017 10:04 4,3 C 6,1 C 4,4 C 96 % 15 lf 1016,1 hPa 0,0 l/m 0 min 0 min 229 W/m 16,7 km/h (3 Bft) 97,87 %
17.04.2017 10:06 4,4 C 6,7 C 5,0 C 96 % 15 lf 1016,1 hPa 0,0 l/m 2 min 0 min 263 W/m 14,6 km/h (3 Bft) 95,65 %
17.04.2017 10:08 4,4 C 7,2 C 5,6 C 96 % 15 lf 1016,1 hPa 0,0 l/m 2 min 0 min 423 W/m 18,8 km/h (3 Bft) 97,87 %
17.04.2017 10:10 4,4 C 7,8 C 5,6 C 96 % 15 lf 1016,1 hPa 0,0 l/m 2 min 0 min 355 W/m 16,7 km/h (3 Bft) 97,87 %
17.04.2017 10:12 4,5 C 7,8 C 5,6 C 96 % 15 lf 1016,2 hPa 0,0 l/m 2 min 0 min 354 W/m 14,6 km/h (3 Bft) 100,00 %
17.04.2017 10:14 4,5 C 7,2 C 5,0 C 96 % 15 lf 1016,1 hPa 0,0 l/m 0 min 0 min 237 W/m 14,6 km/h (3 Bft) 97,87 %
17.04.2017 10:16 4,6 C 8,3 C 6,1 C 96 % 15 lf 1016,2 hPa 0,0 l/m 0 min 0 min 211 W/m 14,6 km/h (3 Bft) 97,83 %
17.04.2017 10:18 4,7 C 7,8 C 6,1 C 96 % 14 lf 1016,2 hPa 0,0 l/m 2 min 0 min 281 W/m 18,8 km/h (3 Bft) 97,87 %
17.04.2017 10:20 4,7 C 7,2 C 5,6 C 96 % 13 lf 1016,2 hPa 0,0 l/m 2 min 0 min 344 W/m 23,0 km/h (4 Bft) 97,87 %
17.04.2017 10:22 4,8 C 7,2 C 5,6 C 96 % 11 lf 1016,2 hPa 0,0 l/m 2 min 0 min 327 W/m 14,6 km/h (3 Bft) 95,74 %
17.04.2017 10:24 4,8 C 7,2 C 5,6 C 96 % 9 lf 1016,3 hPa 0,0 l/m 2 min 0 min 315 W/m 12,6 km/h (3 Bft) 95,74 %
17.04.2017 10:26 4,8 C 7,8 C 6,1 C 96 % 7 lf 1016,3 hPa 0,0 l/m 0 min 0 min 272 W/m 12,6 km/h (3 Bft) 97,87 %
17.04.2017 10:28 4,9 C 7,2 C 5,6 C 96 % 5 lf 1016,4 hPa 0,0 l/m 0 min 0 min 213 W/m 16,7 km/h (3 Bft) 97,83 %
17.04.2017 10:30 5,0 C 6,7 C 5,6 C 96 % 4 lf 1016,4 hPa 0,0 l/m 0 min 0 min 204 W/m 16,7 km/h (3 Bft) 97,87 %
17.04.2017 10:32 5,1 C 7,8 C 6,1 C 96 % 3 lf 1016,4 hPa 0,0 l/m 0 min 0 min 218 W/m 16,7 km/h (3 Bft) 95,74 %
17.04.2017 10:34 5,1 C 7,8 C 6,1 C 96 % 3 lf 1016,4 hPa 0,0 l/m 0 min 0 min 230 W/m 14,6 km/h (3 Bft) 95,74 %
17.04.2017 10:36 5,1 C 8,3 C 6,1 C 96 % 2 lf 1016,5 hPa 0,0 l/m 0 min 0 min 242 W/m 16,7 km/h (3 Bft) 97,87 %
17.04.2017 10:38 5,2 C 7,8 C 6,7 C 96 % 1 lf 1016,5 hPa 0,0 l/m 2 min 0 min 295 W/m 18,8 km/h (3 Bft) 93,62 %
17.04.2017 10:40 5,2 C 7,8 C 6,7 C 96 % 0 lf 1016,6 hPa 0,0 l/m 2 min 0 min 307 W/m 25,1 km/h (4 Bft) 95,65 %
17.04.2017 10:42 5,3 C 7,8 C 6,1 C 96 % 0 lf 1016,6 hPa 0,0 l/m 0 min 0 min 257 W/m 16,7 km/h (3 Bft) 97,87 %
17.04.2017 10:44 5,4 C 7,2 C 6,1 C 96 % 0 lf 1016,6 hPa 0,0 l/m 0 min 0 min 159 W/m 23,0 km/h (4 Bft) 97,87 %
17.04.2017 10:46 5,4 C 6,7 C 5,6 C 96 % 0 lf 1016,6 hPa 0,0 l/m 0 min 0 min 178 W/m 23,0 km/h (4 Bft) 97,87 %
17.04.2017 10:48 5,5 C 6,7 C 5,6 C 96 % 0 lf 1016,7 hPa 0,0 l/m 0 min 0 min 192 W/m 20,9 km/h (4 Bft) 97,87 %
17.04.2017 10:50 5,5 C 6,7 C 5,6 C 96 % 0 lf 1016,7 hPa 0,0 l/m 0 min 0 min 186 W/m 20,9 km/h (4 Bft) 95,74 %
17.04.2017 10:52 5,5 C 6,7 C 5,6 C 96 % 0 lf 1016,7 hPa 0,0 l/m 0 min 0 min 208 W/m 20,9 km/h (4 Bft) 93,48 %
17.04.2017 10:54 5,6 C 6,7 C 6,1 C 95 % 0 lf 1016,7 hPa 0,0 l/m 0 min 0 min 238 W/m 25,1 km/h (4 Bft) 95,74 %
17.04.2017 10:56 5,6 C 7,2 C 6,7 C 95 % 0 lf 1016,7 hPa 0,0 l/m 0 min 0 min 294 W/m 18,8 km/h (3 Bft) 100,00 %
17.04.2017 10:58 5,7 C 7,2 C 6,1 C 95 % 0 lf 1016,7 hPa 0,0 l/m 0 min 0 min 262 W/m 20,9 km/h (4 Bft) 100,00 %
17.04.2017 11:00 5,7 C 7,2 C 6,1 C 95 % 0 lf 1016,7 hPa 0,0 l/m 0 min 0 min 163 W/m 14,6 km/h (3 Bft) 100,00 %
17.04.2017 11:02 5,7 C 6,7 C 6,1 C 95 % 0 lf 1016,8 hPa 0,0 l/m 0 min 0 min 141 W/m 16,7 km/h (3 Bft) 95,74 %
17.04.2017 11:04 5,8 C 6,7 C 5,6 C 95 % 0 lf 1016,8 hPa 0,0 l/m 0 min 0 min 143 W/m 20,9 km/h (4 Bft) 97,83 %
17.04.2017 11:06 5,8 C 6,7 C 5,6 C 95 % 0 lf 1016,8 hPa 0,0 l/m 0 min 0 min 149 W/m 20,9 km/h (4 Bft) 89,36 %
17.04.2017 11:08 5,8 C 6,7 C 5,6 C 94 % 0 lf 1016,8 hPa 0,0 l/m 0 min 0 min 163 W/m 20,9 km/h (4 Bft) 100,00 %
17.04.2017 11:10 5,8 C 6,7 C 5,6 C 94 % 0 lf 1016,9 hPa 0,0 l/m 0 min 0 min 224 W/m 20,9 km/h (4 Bft) 100,00 %
17.04.2017 11:12 5,8 C 7,2 C 6,1 C 94 % 0 lf 1016,9 hPa 0,0 l/m 0 min 0 min 231 W/m 16,7 km/h (3 Bft) 97,87 %
17.04.2017 11:14 5,9 C 7,2 C 6,1 C 94 % 0 lf 1016,9 hPa 0,0 l/m 0 min 0 min 174 W/m 16,7 km/h (3 Bft) 93,62 %
17.04.2017 11:16 5,9 C 7,2 C 6,1 C 94 % 0 lf 1016,9 hPa 0,0 l/m 0 min 0 min 150 W/m 16,7 km/h (3 Bft) 95,65 %
17.04.2017 11:18 6,0 C 7,2 C 6,1 C 94 % 0 lf 1017,0 hPa 0,0 l/m 0 min 0 min 183 W/m 16,7 km/h (3 Bft) 97,87 %
17.04.2017 11:20 6,0 C 7,2 C 6,1 C 93 % 0 lf 1017,0 hPa 0,0 l/m 0 min 0 min 236 W/m 18,8 km/h (3 Bft) 97,87 %
17.04.2017 11:22 6,0 C 7,2 C 6,7 C 93 % 0 lf 1017,0 hPa 0,0 l/m 0 min 0 min 239 W/m 16,7 km/h (3 Bft) 95,74 %
17.04.2017 11:24 6,1 C 7,2 C 6,7 C 93 % 0 lf 1017,0 hPa 0,0 l/m 0 min 0 min 209 W/m 23,0 km/h (4 Bft) 91,49 %
17.04.2017 11:26 6,1 C 7,2 C 6,1 C 93 % 0 lf 1017,0 hPa 0,0 l/m 0 min 0 min 189 W/m 23,0 km/h (4 Bft) 97,87 %
17.04.2017 11:28 6,1 C 7,2 C 6,7 C 93 % 0 lf 1017,0 hPa 0,0 l/m 0 min 0 min 228 W/m 23,0 km/h (4 Bft) 93,48 %
17.04.2017 11:30 6,2 C 9,4 C 7,8 C 93 % 0 lf 1017,1 hPa 0,0 l/m 0 min 0 min 283 W/m 27,2 km/h (4 Bft) 97,87 %
17.04.2017 11:32 6,2 C 9,4 C 8,3 C 93 % 0 lf 1017,1 hPa 0,0 l/m 0 min 0 min 313 W/m 23,0 km/h (4 Bft) 97,87 %
17.04.2017 11:34 6,3 C 10,6 C 9,4 C 92 % 0 lf 1017,1 hPa 0,0 l/m 2 min 0 min 343 W/m 25,1 km/h (4 Bft) 95,74 %
17.04.2017 11:36 6,4 C 10,0 C 8,3 C 92 % 0 lf 1017,0 hPa 0,0 l/m 0 min 0 min 332 W/m 18,8 km/h (3 Bft) 95,74 %
17.04.2017 11:38 6,4 C 9,4 C 7,8 C 91 % 0 lf 1017,1 hPa 0,0 l/m 0 min 0 min 292 W/m 23,0 km/h (4 Bft) 97,83 %
17.04.2017 11:40 6,5 C 9,4 C 7,8 C 91 % 0 lf 1017,1 hPa 0,0 l/m 0 min 0 min 272 W/m 20,9 km/h (4 Bft) 91,49 %
17.04.2017 11:42 6,6 C 9,4 C 7,8 C 90 % 0 lf 1017,1 hPa 0,0 l/m 0 min 0 min 253 W/m 14,6 km/h (3 Bft) 95,74 %
17.04.2017 11:44 6,7 C 8,9 C 7,8 C 90 % 0 lf 1017,2 hPa 0,0 l/m 0 min 0 min 231 W/m 25,1 km/h (4 Bft) 95,74 %
17.04.2017 11:46 6,7 C 8,9 C 7,8 C 90 % 0 lf 1017,1 hPa 0,0 l/m 0 min 0 min 256 W/m 18,8 km/h (3 Bft) 97,87 %
17.04.2017 11:48 6,8 C 8,9 C 7,8 C 89 % 0 lf 1017,1 hPa 0,0 l/m 0 min 0 min 279 W/m 23,0 km/h (4 Bft) 97,87 %
17.04.2017 11:50 6,8 C 9,4 C 7,8 C 89 % 0 lf 1017,1 hPa 0,0 l/m 0 min 0 min 278 W/m 16,7 km/h (3 Bft) 97,83 %
17.04.2017 11:52 6,9 C 9,4 C 7,8 C 88 % 0 lf 1017,0 hPa 0,0 l/m 0 min 0 min 282 W/m 20,9 km/h (4 Bft) 97,87 %
17.04.2017 11:54 6,9 C 9,4 C 7,8 C 88 % 0 lf 1017,0 hPa 0,0 l/m 0 min 0 min 289 W/m 23,0 km/h (4 Bft) 97,87 %
17.04.2017 11:56 6,9 C 9,4 C 7,8 C 87 % 0 lf 1017,0 hPa 0,0 l/m 0 min 0 min 312 W/m 23,0 km/h (4 Bft) 97,87 %
17.04.2017 11:58 6,9 C 10,0 C 8,3 C 87 % 0 lf 1017,1 hPa 0,0 l/m 2 min 0 min 358 W/m 23,0 km/h (4 Bft) 95,74 %
17.04.2017 12:00 7,0 C 10,6 C 8,9 C 87 % 0 lf 1017,1 hPa 0,0 l/m 2 min 0 min 402 W/m 18,8 km/h (3 Bft) 97,87 %
17.04.2017 12:02 7,1 C 10,0 C 8,9 C 86 % 0 lf 1017,0 hPa 0,0 l/m 2 min 0 min 369 W/m 20,9 km/h (4 Bft) 95,65 %
17.04.2017 12:04 7,1 C 10,6 C 8,9 C 86 % 0 lf 1017,0 hPa 0,0 l/m 2 min 0 min 359 W/m 18,8 km/h (3 Bft) 97,87 %
17.04.2017 12:06 7,2 C 11,1 C 8,9 C 86 % 0 lf 1017,1 hPa 0,0 l/m 0 min 0 min 336 W/m 16,7 km/h (3 Bft) 95,74 %
17.04.2017 12:08 7,3 C 11,1 C 8,9 C 86 % 0 lf 1017,0 hPa 0,0 l/m 0 min 0 min 310 W/m 14,6 km/h (3 Bft) 93,62 %
17.04.2017 12:10 7,3 C 11,1 C 8,9 C 86 % 0 lf 1017,1 hPa 0,0 l/m 0 min 0 min 319 W/m 18,8 km/h (3 Bft) 95,74 %
17.04.2017 12:12 7,4 C 12,2 C 9,4 C 86 % 0 lf 1017,1 hPa 0,0 l/m 2 min 0 min 406 W/m 16,7 km/h (3 Bft) 95,74 %
17.04.2017 12:14 7,5 C 15,6 C 11,1 C 85 % 0 lf 1017,1 hPa 0,0 l/m 2 min 0 min 468 W/m 10,5 km/h (2 Bft) 93,48 %
17.04.2017 12:16 7,6 C 14,4 C 11,1 C 86 % 0 lf 1017,1 hPa 0,0 l/m 2 min 0 min 405 W/m 23,0 km/h (4 Bft) 89,36 %
17.04.2017 12:18 7,7 C 13,9 C 10,6 C 86 % 0 lf 1017,1 hPa 0,0 l/m 2 min 0 min 378 W/m 18,8 km/h (3 Bft) 93,62 %
17.04.2017 12:20 7,8 C 12,8 C 10,0 C 85 % 0 lf 1017,1 hPa 0,0 l/m 0 min 0 min 294 W/m 14,6 km/h (3 Bft) 93,62 %
17.04.2017 12:22 7,8 C 12,2 C 10,0 C 85 % 0 lf 1017,1 hPa 0,0 l/m 0 min 0 min 330 W/m 18,8 km/h (3 Bft) 93,62 %
17.04.2017 12:24 7,9 C 14,4 C 10,6 C 84 % 0 lf 1017,1 hPa 0,0 l/m 2 min 0 min 383 W/m 14,6 km/h (3 Bft) 100,00 %
17.04.2017 12:26 8,0 C 15,0 C 10,6 C 85 % 0 lf 1017,1 hPa 0,0 l/m 2 min 0 min 376 W/m 18,8 km/h (3 Bft) 97,83 %
17.04.2017 12:28 8,1 C 15,6 C 10,6 C 84 % 0 lf 1017,1 hPa 0,0 l/m 0 min 0 min 352 W/m 16,7 km/h (3 Bft) 95,74 %
17.04.2017 12:30 8,2 C 16,7 C 10,6 C 84 % 0 lf 1017,1 hPa 0,0 l/m 2 min 0 min 375 W/m 18,8 km/h (3 Bft) 95,74 %
17.04.2017 12:32 8,3 C 17,8 C 11,7 C 84 % 0 lf 1017,1 hPa 0,0 l/m 2 min 0 min 788 W/m 18,8 km/h (3 Bft) 95,74 %
17.04.2017 12:34 8,4 C 18,9 C 11,7 C 83 % 0 lf 1017,1 hPa 0,0 l/m 2 min 0 min 1003 W/m 25,1 km/h (4 Bft) 97,87 %
17.04.2017 12:36 8,7 C 19,4 C 11,7 C 82 % 0 lf 1017,0 hPa 0,0 l/m 2 min 0 min 779 W/m 25,1 km/h (4 Bft) 93,62 %
17.04.2017 12:38 8,8 C 17,8 C 11,7 C 80 % 0 lf 1017,1 hPa 0,0 l/m 2 min 0 min 728 W/m 23,0 km/h (4 Bft) 93,48 %
17.04.2017 12:40 8,9 C 16,1 C 10,6 C 78 % 0 lf 1017,1 hPa 0,0 l/m 2 min 0 min 728 W/m 20,9 km/h (4 Bft) 95,74 %
17.04.2017 12:42 9,1 C 15,6 C 11,1 C 78 % 0 lf 1017,1 hPa 0,0 l/m 2 min 0 min 683 W/m 23,0 km/h (4 Bft) 97,87 %
17.04.2017 12:44 9,2 C 15,0 C 10,6 C 77 % 0 lf 1017,0 hPa 0,0 l/m 2 min 0 min 679 W/m 18,8 km/h (3 Bft) 97,87 %
17.04.2017 12:46 9,2 C 14,4 C 10,6 C 77 % 0 lf 1017,1 hPa 0,0 l/m 2 min 0 min 507 W/m 25,1 km/h (4 Bft) 97,87 %
17.04.2017 12:48 9,3 C 13,3 C 10,0 C 76 % 0 lf 1017,1 hPa 0,0 l/m 2 min 0 min 417 W/m 23,0 km/h (4 Bft) 95,65 %
17.04.2017 12:50 9,3 C 12,2 C 10,0 C 76 % 0 lf 1017,1 hPa 0,0 l/m 0 min 0 min 296 W/m 25,1 km/h (4 Bft) 95,74 %
17.04.2017 12:52 9,3 C 14,4 C 10,0 C 75 % 0 lf 1017,2 hPa 0,0 l/m 0 min 0 min 239 W/m 18,8 km/h (3 Bft) 100,00 %
17.04.2017 12:54 9,3 C 16,7 C 11,7 C 76 % 0 lf 1017,1 hPa 0,0 l/m 0 min 0 min 283 W/m 16,7 km/h (3 Bft) 97,87 %
17.04.2017 12:56 9,4 C 18,3 C 12,2 C 76 % 0 lf 1017,1 hPa 0,0 l/m 2 min 0 min 934 W/m 16,7 km/h (3 Bft) 97,87 %
17.04.2017 12:58 9,4 C 15,6 C 11,1 C 75 % 0 lf 1017,1 hPa 0,0 l/m 2 min 0 min 623 W/m 29,3 km/h (5 Bft) 97,87 %
17.04.2017 13:00 9,5 C 16,1 C 10,6 C 74 % 0 lf 1017,1 hPa 0,0 l/m 0 min 0 min 256 W/m 27,2 km/h (4 Bft) 95,65 %
17.04.2017 13:02 9,6 C 19,4 C 12,8 C 74 % 0 lf 1017,1 hPa 0,0 l/m 2 min 0 min 889 W/m 12,6 km/h (3 Bft) 97,87 %
17.04.2017 13:04 9,6 C 20,0 C 13,3 C 75 % 0 lf 1017,1 hPa 0,0 l/m 2 min 0 min 983 W/m 18,8 km/h (3 Bft) 97,87 %
17.04.2017 13:06 9,8 C 21,1 C 13,9 C 76 % 0 lf 1017,1 hPa 0,0 l/m 2 min 0 min 963 W/m 18,8 km/h (3 Bft) 97,87 %
17.04.2017 13:08 9,9 C 21,7 C 13,3 C 74 % 0 lf 1017,2 hPa 0,0 l/m 2 min 0 min 981 W/m 20,9 km/h (4 Bft) 95,74 %
17.04.2017 13:10 10,2 C 19,4 C 12,8 C 75 % 0 lf 1017,2 hPa 0,0 l/m 2 min 0 min 735 W/m 18,8 km/h (3 Bft) 93,62 %
17.04.2017 13:12 10,2 C 16,7 C 11,7 C 73 % 0 lf 1017,2 hPa 0,0 l/m 0 min 0 min 243 W/m 23,0 km/h (4 Bft) 95,65 %
17.04.2017 13:14 10,2 C 17,2 C 11,1 C 71 % 0 lf 1017,2 hPa 0,0 l/m 2 min 0 min 455 W/m 20,9 km/h (4 Bft) 95,74 %
17.04.2017 13:16 10,2 C 19,4 C 11,7 C 69 % 0 lf 1017,2 hPa 0,0 l/m 2 min 0 min 1014 W/m 18,8 km/h (3 Bft) 95,74 %
17.04.2017 13:18 10,2 C 17,8 C 11,7 C 69 % 0 lf 1017,2 hPa 0,0 l/m 2 min 0 min 899 W/m 25,1 km/h (4 Bft) 95,74 %
17.04.2017 13:20 10,2 C 16,1 C 11,1 C 68 % 0 lf 1017,2 hPa 0,0 l/m 0 min 0 min 348 W/m 31,4 km/h (5 Bft) 95,74 %
17.04.2017 13:22 10,2 C 15,6 C 11,1 C 67 % 0 lf 1017,1 hPa 0,0 l/m 0 min 0 min 357 W/m 25,1 km/h (4 Bft) 91,49 %
17.04.2017 13:24 10,2 C 15,6 C 11,1 C 67 % 0 lf 1017,2 hPa 0,0 l/m 2 min 0 min 384 W/m 20,9 km/h (4 Bft) 95,65 %
17.04.2017 13:26 10,2 C 13,3 C 10,6 C 68 % 0 lf 1017,2 hPa 0,0 l/m 0 min 0 min 247 W/m 33,5 km/h (5 Bft) 93,62 %
17.04.2017 13:28 10,1 C 12,2 C 10,0 C 67 % 0 lf 1017,3 hPa 0,0 l/m 0 min 0 min 236 W/m 31,4 km/h (5 Bft) 95,74 %
17.04.2017 13:30 10,0 C 11,7 C 10,0 C 66 % 0 lf 1017,3 hPa 0,0 l/m 0 min 0 min 260 W/m 25,1 km/h (4 Bft) 95,74 %
17.04.2017 13:32 9,9 C 14,4 C 10,0 C 68 % 0 lf 1017,2 hPa 0,0 l/m 0 min 0 min 304 W/m 23,0 km/h (4 Bft) 93,62 %
17.04.2017 13:34 9,9 C 14,4 C 10,0 C 68 % 0 lf 1017,2 hPa 0,0 l/m 0 min 0 min 283 W/m 23,0 km/h (4 Bft) 95,74 %
17.04.2017 13:36 9,9 C 16,7 C 10,0 C 69 % 0 lf 1017,3 hPa 0,0 l/m 2 min 0 min 428 W/m 18,8 km/h (3 Bft) 95,65 %
17.04.2017 13:38 9,9 C 18,9 C 10,0 C 69 % 0 lf 1017,2 hPa 0,0 l/m 2 min 0 min 911 W/m 18,8 km/h (3 Bft) 93,62 %
17.04.2017 13:40 10,0 C 19,4 C 10,6 C 68 % 0 lf 1017,2 hPa 0,0 l/m 2 min 0 min 940 W/m 20,9 km/h (4 Bft) 93,62 %
17.04.2017 13:42 10,1 C 19,4 C 11,1 C 67 % 0 lf 1017,2 hPa 0,0 l/m 2 min 0 min 1004 W/m 27,2 km/h (4 Bft) 95,74 %
17.04.2017 13:44 10,2 C 17,8 C 11,1 C 67 % 0 lf 1017,3 hPa 0,0 l/m 2 min 0 min 1012 W/m 27,2 km/h (4 Bft) 95,74 %
17.04.2017 13:46 10,2 C 15,0 C 10,6 C 65 % 0 lf 1017,4 hPa 0,0 l/m 0 min 0 min 350 W/m 27,2 km/h (4 Bft) 95,74 %
17.04.2017 13:48 10,1 C 13,3 C 10,0 C 62 % 0 lf 1017,4 hPa 0,0 l/m 0 min 0 min 289 W/m 27,2 km/h (4 Bft) 95,65 %
17.04.2017 13:50 10,1 C 12,8 C 10,0 C 61 % 0 lf 1017,4 hPa 0,0 l/m 0 min 0 min 328 W/m 20,9 km/h (4 Bft) 97,87 %
17.04.2017 13:52 10,0 C 13,3 C 10,0 C 61 % 0 lf 1017,4 hPa 0,0 l/m 0 min 0 min 333 W/m 18,8 km/h (3 Bft) 95,74 %
17.04.2017 13:54 10,0 C 14,4 C 10,0 C 62 % 0 lf 1017,4 hPa 0,0 l/m 0 min 0 min 330 W/m 16,7 km/h (3 Bft) 97,87 %
17.04.2017 13:56 10,1 C 16,1 C 10,6 C 64 % 0 lf 1017,4 hPa 0,0 l/m 2 min 0 min 449 W/m 10,5 km/h (2 Bft) 93,62 %
17.04.2017 13:58 10,1 C 16,1 C 11,1 C 65 % 0 lf 1017,3 hPa 0,0 l/m 0 min 0 min 357 W/m 20,9 km/h (4 Bft) 97,83 %
17.04.2017 14:00 10,2 C 17,8 C 11,1 C 66 % 0 lf 1017,4 hPa 0,0 l/m 2 min 0 min 637 W/m 27,2 km/h (4 Bft) 95,74 %
17.04.2017 14:02 10,3 C 19,4 C 11,7 C 63 % 0 lf 1017,4 hPa 0,0 l/m 2 min 0 min 936 W/m 25,1 km/h (4 Bft) 97,87 %
17.04.2017 14:04 10,4 C 21,1 C 11,7 C 64 % 0 lf 1017,4 hPa 0,0 l/m 2 min 0 min 948 W/m 29,3 km/h (5 Bft) 97,87 %
17.04.2017 14:06 10,6 C 19,4 C 11,1 C 61 % 0 lf 1017,4 hPa 0,0 l/m 2 min 0 min 919 W/m 25,1 km/h (4 Bft) 100,00 %
17.04.2017 14:08 10,6 C 20,0 C 11,1 C 60 % 0 lf 1017,4 hPa 0,0 l/m 2 min 0 min 940 W/m 20,9 km/h (4 Bft) 100,00 %
17.04.2017 14:10 10,7 C 18,9 C 11,1 C 62 % 0 lf 1017,4 hPa 0,0 l/m 2 min 0 min 935 W/m 25,1 km/h (4 Bft) 97,83 %
17.04.2017 14:12 10,8 C 20,0 C 11,1 C 61 % 0 lf 1017,5 hPa 0,0 l/m 2 min 0 min 791 W/m 25,1 km/h (4 Bft) 97,87 %
17.04.2017 14:14 10,9 C 20,0 C 11,7 C 60 % 0 lf 1017,5 hPa 0,0 l/m 2 min 0 min 790 W/m 25,1 km/h (4 Bft) 95,74 %
17.04.2017 14:16 10,9 C 19,4 C 11,7 C 60 % 0 lf 1017,5 hPa 0,0 l/m 2 min 0 min 974 W/m 25,1 km/h (4 Bft) 100,00 %
17.04.2017 14:18 11,0 C 19,4 C 12,2 C 60 % 0 lf 1017,5 hPa 0,0 l/m 2 min 0 min 691 W/m 18,8 km/h (3 Bft) 100,00 %
17.04.2017 14:20 11,1 C 20,0 C 12,2 C 61 % 0 lf 1017,5 hPa 0,0 l/m 2 min 0 min 691 W/m 16,7 km/h (3 Bft) 100,00 %
17.04.2017 14:22 11,1 C 19,4 C 12,8 C 61 % 0 lf 1017,5 hPa 0,0 l/m 2 min 0 min 785 W/m 31,4 km/h (5 Bft) 97,83 %
17.04.2017 14:24 11,2 C 19,4 C 12,2 C 60 % 0 lf 1017,5 hPa 0,0 l/m 2 min 0 min 784 W/m 29,3 km/h (5 Bft) 100,00 %
17.04.2017 14:26 11,2 C 19,4 C 12,2 C 61 % 0 lf 1017,6 hPa 0,0 l/m 2 min 0 min 950 W/m 35,6 km/h (5 Bft) 100,00 %
17.04.2017 14:28 11,3 C 20,0 C 11,7 C 60 % 0 lf 1017,4 hPa 0,0 l/m 2 min 0 min 907 W/m 29,3 km/h (5 Bft) 100,00 %
17.04.2017 14:30 11,3 C 18,9 C 12,2 C 59 % 0 lf 1017,5 hPa 0,0 l/m 2 min 0 min 868 W/m 33,5 km/h (5 Bft) 100,00 %
17.04.2017 14:32 11,3 C 18,9 C 12,8 C 59 % 0 lf 1017,5 hPa 0,0 l/m 2 min 0 min 835 W/m 33,5 km/h (5 Bft) 97,87 %
17.04.2017 14:34 11,2 C 18,3 C 13,3 C 59 % 0 lf 1017,5 hPa 0,0 l/m 2 min 0 min 820 W/m 29,3 km/h (5 Bft) 100,00 %
17.04.2017 14:36 11,2 C 18,3 C 13,9 C 58 % 0 lf 1017,5 hPa 0,0 l/m 2 min 0 min 813 W/m 31,4 km/h (5 Bft) 97,87 %
17.04.2017 14:38 11,2 C 19,4 C 15,0 C 56 % 0 lf 1017,5 hPa 0,0 l/m 2 min 0 min 814 W/m 18,8 km/h (3 Bft) 97,87 %
17.04.2017 14:40 11,2 C 20,0 C 16,1 C 56 % 0 lf 1017,5 hPa 0,0 l/m 2 min 0 min 825 W/m 12,6 km/h (3 Bft) 97,87 %
17.04.2017 14:42 11,2 C 20,6 C 17,2 C 57 % 0 lf 1017,5 hPa 0,0 l/m 2 min 0 min 853 W/m 23,0 km/h (4 Bft) 97,87 %
17.04.2017 14:44 11,3 C 20,0 C 16,7 C 58 % 0 lf 1017,5 hPa 0,0 l/m 2 min 0 min 847 W/m 23,0 km/h (4 Bft) 97,87 %
17.04.2017 14:46 11,3 C 20,0 C 16,7 C 57 % 0 lf 1017,5 hPa 0,0 l/m 2 min 0 min 811 W/m 25,1 km/h (4 Bft) 97,83 %
17.04.2017 14:48 11,3 C 20,6 C 18,3 C 60 % 0 lf 1017,5 hPa 0,0 l/m 2 min 0 min 801 W/m 16,7 km/h (3 Bft) 95,74 %
17.04.2017 14:50 11,4 C 20,6 C 18,3 C 57 % 0 lf 1017,4 hPa 0,0 l/m 2 min 0 min 803 W/m 23,0 km/h (4 Bft) 97,87 %
17.04.2017 14:52 11,4 C 20,6 C 18,9 C 57 % 0 lf 1017,4 hPa 0,0 l/m 2 min 0 min 809 W/m 18,8 km/h (3 Bft) 95,74 %
17.04.2017 14:54 11,5 C 20,0 C 20,0 C 58 % 0 lf 1017,3 hPa 0,0 l/m 2 min 0 min 800 W/m 23,0 km/h (4 Bft) 95,74 %
17.04.2017 14:56 11,6 C 20,6 C 19,4 C 57 % 0 lf 1017,3 hPa 0,0 l/m 2 min 0 min 798 W/m 20,9 km/h (4 Bft) 95,74 %
17.04.2017 14:58 11,6 C 20,6 C 19,4 C 56 % 0 lf 1017,3 hPa 0,0 l/m 2 min 0 min 804 W/m 23,0 km/h (4 Bft) 91,30 %
17.04.2017 15:00 11,7 C 20,6 C 18,9 C 56 % 0 lf 1017,3 hPa 0,0 l/m 2 min 0 min 820 W/m 20,9 km/h (4 Bft) 95,74 %
17.04.2017 15:02 11,8 C 20,6 C 19,4 C 56 % 0 lf 1017,4 hPa 0,0 l/m 2 min 0 min 864 W/m 27,2 km/h (4 Bft) 95,74 %
17.04.2017 15:04 11,9 C 21,7 C 20,6 C 58 % 0 lf 1017,3 hPa 0,0 l/m 2 min 0 min 937 W/m 25,1 km/h (4 Bft) 93,62 %
17.04.2017 15:06 12,0 C 19,4 C 18,3 C 57 % 0 lf 1017,4 hPa 0,0 l/m 2 min 0 min 942 W/m 20,9 km/h (4 Bft) 93,62 %
17.04.2017 15:08 12,1 C 17,2 C 15,6 C 55 % 0 lf 1017,4 hPa 0,0 l/m 0 min 0 min 289 W/m 18,8 km/h (3 Bft) 95,74 %
17.04.2017 15:10 12,0 C 15,6 C 13,9 C 55 % 0 lf 1017,4 hPa 0,0 l/m 0 min 0 min 132 W/m 18,8 km/h (3 Bft) 95,65 %
17.04.2017 15:12 12,0 C 13,9 C 12,8 C 54 % 1 lf 1017,4 hPa 0,0 l/m 0 min 0 min 91 W/m 16,7 km/h (3 Bft) 93,62 %
17.04.2017 15:14 11,9 C 12,8 C 11,1 C 55 % 0 lf 1017,5 hPa 0,0 l/m 0 min 0 min 68 W/m 33,5 km/h (5 Bft) 97,87 %
17.04.2017 15:16 11,8 C 11,7 C 10,6 C 54 % 0 lf 1017,6 hPa 0,0 l/m 0 min 0 min 57 W/m 20,9 km/h (4 Bft) 95,74 %
17.04.2017 15:18 11,6 C 11,1 C 10,0 C 54 % 0 lf 1017,6 hPa 0,0 l/m 0 min 0 min 53 W/m 31,4 km/h (5 Bft) 95,74 %
17.04.2017 15:20 11,4 C 10,6 C 9,4 C 56 % 0 lf 1017,7 hPa 0,0 l/m 0 min 0 min 55 W/m 31,4 km/h (5 Bft) 95,65 %
17.04.2017 15:22 11,2 C 10,6 C 8,9 C 56 % 12 lf 1017,7 hPa 0,0 l/m 0 min 2 min 63 W/m 25,1 km/h (4 Bft) 91,49 %
17.04.2017 15:24 11,0 C 10,0 C 7,2 C 60 % 15 lf 1017,7 hPa 0,0 l/m 0 min 2 min 86 W/m 23,0 km/h (4 Bft) 95,74 %
17.04.2017 15:26 10,8 C 10,0 C 6,7 C 62 % 15 lf 1017,7 hPa 0,0 l/m 0 min 2 min 129 W/m 23,0 km/h (4 Bft) 95,74 %
17.04.2017 15:28 10,7 C 12,8 C 6,7 C 63 % 15 lf 1017,7 hPa 0,0 l/m 0 min 2 min 301 W/m 23,0 km/h (4 Bft) 93,62 %
17.04.2017 15:30 10,6 C 16,1 C 8,3 C 66 % 15 lf 1017,7 hPa 0,0 l/m 2 min 2 min 796 W/m 14,6 km/h (3 Bft) 97,87 %
17.04.2017 15:32 10,6 C 18,3 C 8,9 C 67 % 15 lf 1017,7 hPa 0,0 l/m 2 min 2 min 792 W/m 14,6 km/h (3 Bft) 97,83 %
17.04.2017 15:34 10,5 C 16,1 C 8,3 C 68 % 15 lf 1017,7 hPa 0,0 l/m 2 min 2 min 803 W/m 31,4 km/h (5 Bft) 97,87 %
17.04.2017 15:36 10,4 C 15,6 C 9,4 C 65 % 15 lf 1017,7 hPa 0,0 l/m 2 min 2 min 803 W/m 29,3 km/h (5 Bft) 100,00 %
17.04.2017 15:38 10,3 C 16,7 C 11,1 C 65 % 9 lf 1017,6 hPa 0,0 l/m 2 min 2 min 798 W/m 16,7 km/h (3 Bft) 95,74 %
17.04.2017 15:40 10,3 C 18,3 C 11,7 C 66 % 0 lf 1017,6 hPa 0,0 l/m 2 min 0 min 732 W/m 16,7 km/h (3 Bft) 95,74 %
17.04.2017 15:42 10,4 C 18,9 C 12,8 C 65 % 0 lf 1017,5 hPa 0,0 l/m 2 min 0 min 724 W/m 25,1 km/h (4 Bft) 95,74 %
17.04.2017 15:44 10,4 C 18,9 C 15,0 C 65 % 0 lf 1017,5 hPa 0,0 l/m 2 min 0 min 718 W/m 23,0 km/h (4 Bft) 95,65 %
17.04.2017 15:46 10,6 C 20,0 C 16,1 C 65 % 0 lf 1017,5 hPa 0,0 l/m 2 min 0 min 716 W/m 18,8 km/h (3 Bft) 97,87 %
17.04.2017 15:48 10,7 C 20,0 C 15,6 C 65 % 0 lf 1017,5 hPa 0,0 l/m 2 min 0 min 722 W/m 20,9 km/h (4 Bft) 100,00 %
17.04.2017 15:50 10,8 C 19,4 C 15,0 C 65 % 0 lf 1017,5 hPa 0,0 l/m 2 min 0 min 737 W/m 27,2 km/h (4 Bft) 93,62 %
17.04.2017 15:52 10,9 C 18,3 C 14,4 C 65 % 0 lf 1017,5 hPa 0,0 l/m 2 min 0 min 742 W/m 25,1 km/h (4 Bft) 97,87 %
17.04.2017 15:54 11,0 C 19,4 C 16,1 C 63 % 0 lf 1017,4 hPa 0,0 l/m 2 min 0 min 742 W/m 27,2 km/h (4 Bft) 93,62 %
17.04.2017 15:56 11,1 C 19,4 C 16,1 C 63 % 0 lf 1017,5 hPa 0,0 l/m 2 min 0 min 768 W/m 23,0 km/h (4 Bft) 95,65 %
17.04.2017 15:58 11,3 C 20,0 C 16,1 C 64 % 0 lf 1017,5 hPa 0,0 l/m 2 min 0 min 761 W/m 23,0 km/h (4 Bft) 95,74 %
17.04.2017 16:00 11,4 C 20,6 C 17,2 C 62 % 0 lf 1017,4 hPa 0,0 l/m 2 min 0 min 765 W/m 20,9 km/h (4 Bft) 95,74 %
17.04.2017 16:02 11,5 C 20,6 C 18,3 C 63 % 0 lf 1017,4 hPa 0,0 l/m 2 min 0 min 780 W/m 29,3 km/h (5 Bft) 95,74 %
17.04.2017 16:04 11,6 C 20,0 C 17,8 C 61 % 0 lf 1017,4 hPa 0,0 l/m 2 min 0 min 787 W/m 18,8 km/h (3 Bft) 95,74 %
17.04.2017 16:06 11,7 C 21,1 C 16,7 C 60 % 0 lf 1017,3 hPa 0,0 l/m 2 min 0 min 804 W/m 14,6 km/h (3 Bft) 95,74 %
17.04.2017 16:08 11,8 C 20,6 C 16,1 C 61 % 0 lf 1017,4 hPa 0,0 l/m 2 min 0 min 783 W/m 23,0 km/h (4 Bft) 91,30 %
17.04.2017 16:10 11,9 C 19,4 C 14,4 C 58 % 0 lf 1017,4 hPa 0,0 l/m 2 min 0 min 709 W/m 31,4 km/h (5 Bft) 97,87 %
17.04.2017 16:12 11,9 C 16,7 C 13,9 C 60 % 0 lf 1017,4 hPa 0,0 l/m 0 min 0 min 224 W/m 25,1 km/h (4 Bft) 89,36 %
17.04.2017 16:14 11,9 C 15,6 C 12,8 C 61 % 0 lf 1017,4 hPa 0,0 l/m 0 min 0 min 104 W/m 29,3 km/h (5 Bft) 95,74 %
17.04.2017 16:16 11,9 C 13,9 C 11,7 C 59 % 7 lf 1017,4 hPa 0,0 l/m 0 min 0 min 90 W/m 27,2 km/h (4 Bft) 95,74 %
17.04.2017 16:18 11,8 C 12,8 C 11,1 C 58 % 3 lf 1017,5 hPa 0,0 l/m 0 min 2 min 87 W/m 27,2 km/h (4 Bft) 95,74 %
17.04.2017 16:20 11,7 C 11,7 C 10,0 C 58 % 0 lf 1017,5 hPa 0,0 l/m 0 min 2 min 96 W/m 18,8 km/h (3 Bft) 97,83 %
17.04.2017 16:22 11,4 C 11,7 C 9,4 C 60 % 0 lf 1017,5 hPa 0,0 l/m 0 min 0 min 114 W/m 18,8 km/h (3 Bft) 97,87 %
17.04.2017 16:24 11,3 C 11,1 C 10,0 C 62 % 0 lf 1017,5 hPa 0,0 l/m 0 min 0 min 112 W/m 20,9 km/h (4 Bft) 97,87 %
17.04.2017 16:26 11,2 C 11,1 C 9,4 C 61 % 0 lf 1017,5 hPa 0,0 l/m 0 min 0 min 112 W/m 20,9 km/h (4 Bft) 95,74 %
17.04.2017 16:28 11,1 C 11,1 C 9,4 C 62 % 0 lf 1017,5 hPa 0,0 l/m 0 min 0 min 123 W/m 18,8 km/h (3 Bft) 97,87 %
17.04.2017 16:30 11,0 C 11,1 C 9,4 C 62 % 0 lf 1017,6 hPa 0,0 l/m 0 min 0 min 133 W/m 20,9 km/h (4 Bft) 97,83 %
17.04.2017 16:32 10,8 C 11,1 C 10,0 C 62 % 0 lf 1017,5 hPa 0,0 l/m 0 min 0 min 143 W/m 20,9 km/h (4 Bft) 97,87 %
17.04.2017 16:34 10,8 C 11,1 C 10,0 C 63 % 0 lf 1017,5 hPa 0,0 l/m 0 min 0 min 156 W/m 16,7 km/h (3 Bft) 95,74 %
17.04.2017 16:36 10,7 C 11,1 C 10,0 C 63 % 0 lf 1017,6 hPa 0,0 l/m 0 min 0 min 175 W/m 18,8 km/h (3 Bft) 97,87 %
17.04.2017 16:38 10,6 C 11,1 C 10,6 C 63 % 0 lf 1017,5 hPa 0,0 l/m 0 min 0 min 207 W/m 16,7 km/h (3 Bft) 100,00 %
17.04.2017 16:40 10,6 C 14,4 C 11,1 C 63 % 0 lf 1017,5 hPa 0,0 l/m 2 min 0 min 401 W/m 12,6 km/h (3 Bft) 100,00 %
17.04.2017 16:42 10,5 C 15,0 C 11,7 C 63 % 0 lf 1017,5 hPa 0,0 l/m 2 min 0 min 711 W/m 12,6 km/h (3 Bft) 97,83 %
17.04.2017 16:44 10,5 C 13,9 C 11,1 C 62 % 0 lf 1017,5 hPa 0,0 l/m 0 min 0 min 146 W/m 20,9 km/h (4 Bft) 100,00 %
17.04.2017 16:46 10,5 C 12,8 C 10,6 C 60 % 1 lf 1017,6 hPa 0,0 l/m 0 min 0 min 103 W/m 27,2 km/h (4 Bft) 97,87 %
17.04.2017 16:48 10,4 C 11,7 C 9,4 C 61 % 0 lf 1017,7 hPa 0,0 l/m 0 min 0 min 74 W/m 33,5 km/h (5 Bft) 100,00 %
17.04.2017 16:50 10,3 C 10,6 C 8,9 C 62 % 1 lf 1017,7 hPa 0,0 l/m 0 min 2 min 68 W/m 31,4 km/h (5 Bft) 97,87 %
17.04.2017 16:52 10,2 C 10,0 C 8,3 C 63 % 1 lf 1017,8 hPa 0,0 l/m 0 min 0 min 77 W/m 23,0 km/h (4 Bft) 97,87 %
17.04.2017 16:54 10,1 C 10,0 C 8,3 C 64 % 0 lf 1017,9 hPa 0,0 l/m 0 min 2 min 90 W/m 14,6 km/h (3 Bft) 100,00 %
17.04.2017 16:56 10,0 C 10,0 C 8,3 C 64 % 0 lf 1017,9 hPa 0,0 l/m 0 min 0 min 112 W/m 23,0 km/h (4 Bft) 97,87 %
17.04.2017 16:58 9,9 C 10,0 C 8,3 C 65 % 0 lf 1017,9 hPa 0,0 l/m 0 min 0 min 147 W/m 25,1 km/h (4 Bft) 100,00 %
17.04.2017 17:00 9,8 C 10,0 C 8,3 C 64 % 0 lf 1017,9 hPa 0,0 l/m 0 min 0 min 167 W/m 31,4 km/h (5 Bft) 97,87 %
17.04.2017 17:02 9,7 C 10,0 C 8,9 C 65 % 0 lf 1017,9 hPa 0,0 l/m 0 min 0 min 168 W/m 27,2 km/h (4 Bft) 100,00 %
17.04.2017 17:04 9,6 C 10,0 C 8,3 C 65 % 0 lf 1017,8 hPa 0,0 l/m 0 min 0 min 145 W/m 27,2 km/h (4 Bft) 100,00 %
17.04.2017 17:06 9,4 C 10,0 C 8,3 C 66 % 0 lf 1017,8 hPa 0,0 l/m 0 min 0 min 114 W/m 31,4 km/h (5 Bft) 97,83 %
17.04.2017 17:08 9,3 C 9,4 C 7,8 C 65 % 0 lf 1017,9 hPa 0,0 l/m 0 min 0 min 94 W/m 29,3 km/h (5 Bft) 100,00 %
17.04.2017 17:10 9,2 C 9,4 C 7,8 C 66 % 0 lf 1017,9 hPa 0,0 l/m 0 min 0 min 83 W/m 27,2 km/h (4 Bft) 100,00 %
17.04.2017 17:12 9,2 C 9,4 C 7,8 C 66 % 0 lf 1017,9 hPa 0,0 l/m 0 min 0 min 87 W/m 14,6 km/h (3 Bft) 100,00 %
17.04.2017 17:14 9,2 C 11,1 C 7,8 C 67 % 0 lf 1017,9 hPa 0,0 l/m 0 min 0 min 168 W/m 18,8 km/h (3 Bft) 97,87 %
17.04.2017 17:16 9,2 C 12,8 C 8,3 C 67 % 0 lf 1017,9 hPa 0,0 l/m 2 min 0 min 456 W/m 20,9 km/h (4 Bft) 100,00 %
17.04.2017 17:18 9,2 C 13,9 C 8,3 C 68 % 0 lf 1017,9 hPa 0,0 l/m 2 min 0 min 507 W/m 20,9 km/h (4 Bft) 100,00 %
17.04.2017 17:20 9,2 C 14,4 C 8,9 C 68 % 0 lf 1017,9 hPa 0,0 l/m 2 min 0 min 500 W/m 20,9 km/h (4 Bft) 100,00 %
17.04.2017 17:22 9,3 C 14,4 C 8,9 C 67 % 0 lf 1017,9 hPa 0,0 l/m 2 min 0 min 495 W/m 27,2 km/h (4 Bft) 100,00 %
17.04.2017 17:24 9,4 C 13,9 C 8,9 C 67 % 0 lf 1017,8 hPa 0,0 l/m 2 min 0 min 487 W/m 27,2 km/h (4 Bft) 100,00 %
17.04.2017 17:26 9,5 C 12,2 C 8,9 C 66 % 0 lf 1017,9 hPa 0,0 l/m 0 min 0 min 228 W/m 25,1 km/h (4 Bft) 97,87 %
17.04.2017 17:28 9,5 C 11,7 C 8,9 C 66 % 0 lf 1018,0 hPa 0,0 l/m 0 min 0 min 116 W/m 18,8 km/h (3 Bft) 97,87 %
17.04.2017 17:30 9,6 C 11,1 C 8,9 C 67 % 0 lf 1017,9 hPa 0,0 l/m 0 min 0 min 113 W/m 25,1 km/h (4 Bft) 97,83 %
17.04.2017 17:32 9,6 C 10,6 C 8,9 C 66 % 3 lf 1017,9 hPa 0,0 l/m 0 min 0 min 100 W/m 23,0 km/h (4 Bft) 97,87 %
17.04.2017 17:34 9,6 C 10,6 C 8,9 C 66 % 1 lf 1017,9 hPa 0,0 l/m 0 min 2 min 104 W/m 20,9 km/h (4 Bft) 97,87 %
17.04.2017 17:36 9,6 C 10,6 C 8,9 C 66 % 0 lf 1018,0 hPa 0,0 l/m 0 min 0 min 125 W/m 16,7 km/h (3 Bft) 95,74 %
17.04.2017 17:38 9,6 C 10,6 C 8,9 C 65 % 0 lf 1018,0 hPa 0,0 l/m 0 min 0 min 155 W/m 23,0 km/h (4 Bft) 93,62 %
17.04.2017 17:40 9,6 C 10,6 C 9,4 C 65 % 0 lf 1018,0 hPa 0,0 l/m 0 min 0 min 192 W/m 29,3 km/h (5 Bft) 93,48 %
17.04.2017 17:42 9,6 C 10,6 C 9,4 C 64 % 0 lf 1018,0 hPa 0,0 l/m 0 min 0 min 197 W/m 27,2 km/h (4 Bft) 95,74 %
17.04.2017 17:44 9,5 C 11,1 C 9,4 C 64 % 0 lf 1018,0 hPa 0,0 l/m 0 min 0 min 206 W/m 23,0 km/h (4 Bft) 95,74 %
17.04.2017 17:46 9,5 C 11,1 C 9,4 C 64 % 0 lf 1018,0 hPa 0,0 l/m 0 min 0 min 178 W/m 23,0 km/h (4 Bft) 95,74 %
17.04.2017 17:48 9,5 C 11,1 C 9,4 C 64 % 0 lf 1018,1 hPa 0,0 l/m 0 min 0 min 146 W/m 23,0 km/h (4 Bft) 93,62 %
17.04.2017 17:50 9,5 C 10,6 C 8,9 C 64 % 0 lf 1018,1 hPa 0,0 l/m 0 min 0 min 138 W/m 35,6 km/h (5 Bft) 95,74 %
17.04.2017 17:52 9,5 C 10,6 C 8,9 C 63 % 0 lf 1018,1 hPa 0,0 l/m 0 min 0 min 133 W/m 23,0 km/h (4 Bft) 95,65 %
17.04.2017 17:54 9,5 C 10,6 C 8,9 C 62 % 0 lf 1018,2 hPa 0,0 l/m 0 min 0 min 137 W/m 20,9 km/h (4 Bft) 91,49 %
17.04.2017 17:56 9,5 C 10,6 C 8,9 C 61 % 0 lf 1018,1 hPa 0,0 l/m 0 min 0 min 133 W/m 27,2 km/h (4 Bft) 93,62 %
17.04.2017 17:58 9,4 C 10,0 C 8,9 C 59 % 0 lf 1018,2 hPa 0,0 l/m 0 min 0 min 120 W/m 25,1 km/h (4 Bft) 93,62 %
17.04.2017 18:00 9,4 C 10,0 C 8,3 C 59 % 0 lf 1018,2 hPa 0,0 l/m 0 min 0 min 179 W/m 33,5 km/h (5 Bft) 95,74 %
17.04.2017 18:02 9,3 C 10,0 C 8,3 C 58 % 0 lf 1018,3 hPa 0,0 l/m 0 min 0 min 130 W/m 29,3 km/h (5 Bft) 95,74 %
17.04.2017 18:04 9,3 C 10,0 C 8,3 C 59 % 0 lf 1018,2 hPa 0,0 l/m 0 min 0 min 124 W/m 25,1 km/h (4 Bft) 91,30 %
17.04.2017 18:06 9,3 C 10,0 C 8,3 C 60 % 0 lf 1018,3 hPa 0,0 l/m 0 min 0 min 119 W/m 29,3 km/h (5 Bft) 93,62 %
17.04.2017 18:08 9,3 C 10,0 C 8,3 C 60 % 0 lf 1018,3 hPa 0,0 l/m 0 min 0 min 120 W/m 31,4 km/h (5 Bft) 93,62 %
17.04.2017 18:10 9,2 C 10,0 C 8,3 C 61 % 0 lf 1018,3 hPa 0,0 l/m 0 min 0 min 158 W/m 31,4 km/h (5 Bft) 91,49 %
17.04.2017 18:12 9,2 C 10,6 C 8,3 C 61 % 0 lf 1018,3 hPa 0,0 l/m 2 min 0 min 241 W/m 27,2 km/h (4 Bft) 91,49 %
17.04.2017 18:14 9,2 C 10,6 C 8,3 C 62 % 0 lf 1018,3 hPa 0,0 l/m 2 min 0 min 241 W/m 23,0 km/h (4 Bft) 93,62 %
17.04.2017 18:16 9,2 C 10,6 C 8,3 C 62 % 0 lf 1018,3 hPa 0,0 l/m 2 min 0 min 248 W/m 16,7 km/h (3 Bft) 93,48 %
17.04.2017 18:18 9,2 C 10,6 C 8,3 C 63 % 0 lf 1018,3 hPa 0,0 l/m 2 min 0 min 340 W/m 23,0 km/h (4 Bft) 89,36 %
17.04.2017 18:20 9,2 C 11,1 C 8,3 C 63 % 0 lf 1018,2 hPa 0,0 l/m 2 min 0 min 331 W/m 23,0 km/h (4 Bft) 89,36 %
17.04.2017 18:22 9,3 C 11,1 C 8,3 C 63 % 0 lf 1018,2 hPa 0,0 l/m 2 min 0 min 329 W/m 31,4 km/h (5 Bft) 89,36 %
17.04.2017 18:24 9,3 C 10,6 C 8,3 C 62 % 0 lf 1018,2 hPa 0,0 l/m 2 min 0 min 328 W/m 27,2 km/h (4 Bft) 91,49 %
17.04.2017 18:26 9,4 C 10,6 C 8,3 C 61 % 0 lf 1018,2 hPa 0,0 l/m 2 min 0 min 326 W/m 29,3 km/h (5 Bft) 89,36 %
17.04.2017 18:28 9,4 C 10,6 C 8,9 C 61 % 0 lf 1018,2 hPa 0,0 l/m 2 min 0 min 328 W/m 23,0 km/h (4 Bft) 89,13 %
17.04.2017 18:30 9,4 C 10,6 C 8,3 C 61 % 0 lf 1018,2 hPa 0,0 l/m 2 min 0 min 314 W/m 23,0 km/h (4 Bft) 93,62 %
17.04.2017 18:32 9,5 C 10,6 C 8,3 C 59 % 0 lf 1018,3 hPa 0,0 l/m 2 min 0 min 304 W/m 31,4 km/h (5 Bft) 93,62 %
17.04.2017 18:34 9,5 C 10,6 C 8,3 C 59 % 0 lf 1018,2 hPa 0,0 l/m 2 min 0 min 303 W/m 31,4 km/h (5 Bft) 93,62 %
17.04.2017 18:36 9,6 C 10,6 C 8,3 C 58 % 0 lf 1018,2 hPa 0,0 l/m 2 min 0 min 294 W/m 33,5 km/h (5 Bft) 93,62 %
17.04.2017 18:38 9,6 C 10,6 C 8,3 C 58 % 0 lf 1018,2 hPa 0,0 l/m 2 min 0 min 253 W/m 33,5 km/h (5 Bft) 95,74 %
17.04.2017 18:40 9,6 C 10,0 C 8,3 C 58 % 0 lf 1018,3 hPa 0,0 l/m 2 min 0 min 248 W/m 33,5 km/h (5 Bft) 97,83 %
17.04.2017 18:42 9,6 C 10,0 C 8,3 C 58 % 0 lf 1018,2 hPa 0,0 l/m 2 min 0 min 140 W/m 29,3 km/h (5 Bft) 95,74 %
17.04.2017 18:44 9,5 C 10,0 C 7,8 C 59 % 0 lf 1018,3 hPa 0,0 l/m 0 min 0 min 90 W/m 33,5 km/h (5 Bft) 93,62 %
17.04.2017 18:46 9,5 C 10,0 C 7,8 C 58 % 0 lf 1018,3 hPa 0,0 l/m 2 min 0 min 176 W/m 27,2 km/h (4 Bft) 97,87 %
17.04.2017 18:48 9,4 C 10,0 C 7,8 C 58 % 0 lf 1018,4 hPa 0,0 l/m 2 min 0 min 227 W/m 31,4 km/h (5 Bft) 95,74 %
17.04.2017 18:50 9,4 C 10,0 C 7,8 C 59 % 0 lf 1018,4 hPa 0,0 l/m 2 min 0 min 212 W/m 27,2 km/h (4 Bft) 97,87 %
17.04.2017 18:52 9,4 C 10,0 C 7,8 C 60 % 0 lf 1018,4 hPa 0,0 l/m 2 min 0 min 175 W/m 29,3 km/h (5 Bft) 97,83 %
17.04.2017 18:54 9,4 C 10,0 C 7,8 C 60 % 0 lf 1018,4 hPa 0,0 l/m 2 min 0 min 197 W/m 33,5 km/h (5 Bft) 93,62 %
17.04.2017 18:56 9,3 C 10,0 C 7,8 C 59 % 0 lf 1018,4 hPa 0,0 l/m 2 min 0 min 170 W/m 39,7 km/h (6 Bft) 97,87 %
17.04.2017 18:58 9,3 C 9,4 C 7,8 C 60 % 0 lf 1018,5 hPa 0,0 l/m 0 min 0 min 112 W/m 27,2 km/h (4 Bft) 93,62 %
17.04.2017 19:00 9,3 C 9,4 C 7,2 C 60 % 0 lf 1018,5 hPa 0,0 l/m 0 min 0 min 74 W/m 29,3 km/h (5 Bft) 97,87 %
17.04.2017 19:02 9,2 C 9,4 C 7,2 C 60 % 0 lf 1018,6 hPa 0,0 l/m 0 min 0 min 74 W/m 33,5 km/h (5 Bft) 91,30 %
17.04.2017 19:04 9,2 C 8,9 C 7,2 C 60 % 0 lf 1018,5 hPa 0,0 l/m 0 min 0 min 70 W/m 29,3 km/h (5 Bft) 100,00 %
17.04.2017 19:06 9,1 C 8,9 C 7,2 C 60 % 0 lf 1018,6 hPa 0,0 l/m 0 min 0 min 66 W/m 31,4 km/h (5 Bft) 97,87 %
17.04.2017 19:08 9,0 C 8,9 C 7,2 C 60 % 0 lf 1018,7 hPa 0,0 l/m 0 min 0 min 69 W/m 29,3 km/h (5 Bft) 100,00 %
17.04.2017 19:10 8,9 C 8,9 C 7,2 C 61 % 0 lf 1018,8 hPa 0,0 l/m 0 min 0 min 69 W/m 33,5 km/h (5 Bft) 100,00 %
17.04.2017 19:12 8,9 C 8,9 C 7,2 C 62 % 0 lf 1018,8 hPa 0,0 l/m 0 min 0 min 66 W/m 31,4 km/h (5 Bft) 100,00 %
17.04.2017 19:14 8,8 C 8,9 C 7,2 C 63 % 0 lf 1018,8 hPa 0,0 l/m 0 min 0 min 64 W/m 52,3 km/h (7 Bft) 100,00 %
17.04.2017 19:16 8,7 C 8,9 C 7,2 C 64 % 0 lf 1018,8 hPa 0,0 l/m 0 min 0 min 63 W/m 39,7 km/h (6 Bft) 95,74 %
17.04.2017 19:18 8,7 C 8,9 C 7,2 C 65 % 0 lf 1018,7 hPa 0,0 l/m 0 min 0 min 63 W/m 23,0 km/h (4 Bft) 97,87 %
17.04.2017 19:20 8,6 C 8,9 C 7,2 C 66 % 0 lf 1018,7 hPa 0,0 l/m 0 min 0 min 62 W/m 25,1 km/h (4 Bft) 100,00 %
17.04.2017 19:22 8,6 C 8,3 C 7,2 C 66 % 0 lf 1018,7 hPa 0,0 l/m 0 min 0 min 62 W/m 25,1 km/h (4 Bft) 100,00 %
17.04.2017 19:24 8,4 C 8,3 C 7,2 C 66 % 0 lf 1018,8 hPa 0,0 l/m 0 min 0 min 59 W/m 23,0 km/h (4 Bft) 100,00 %
17.04.2017 19:26 8,4 C 8,3 C 7,2 C 66 % 0 lf 1018,8 hPa 0,0 l/m 0 min 0 min 55 W/m 25,1 km/h (4 Bft) 100,00 %
17.04.2017 19:28 8,3 C 8,3 C 7,2 C 66 % 0 lf 1018,8 hPa 0,0 l/m 0 min 0 min 54 W/m 25,1 km/h (4 Bft) 100,00 %
17.04.2017 19:30 8,3 C 8,3 C 7,2 C 67 % 0 lf 1018,8 hPa 0,0 l/m 0 min 0 min 55 W/m 20,9 km/h (4 Bft) 100,00 %
17.04.2017 19:32 8,3 C 8,3 C 7,2 C 67 % 0 lf 1018,8 hPa 0,0 l/m 0 min 0 min 59 W/m 29,3 km/h (5 Bft) 100,00 %
17.04.2017 19:34 8,2 C 8,3 C 7,2 C 66 % 0 lf 1018,8 hPa 0,0 l/m 0 min 0 min 66 W/m 29,3 km/h (5 Bft) 100,00 %
17.04.2017 19:36 8,2 C 8,3 C 7,2 C 66 % 0 lf 1018,9 hPa 0,0 l/m 2 min 0 min 76 W/m 25,1 km/h (4 Bft) 97,87 %
17.04.2017 19:38 8,2 C 8,3 C 7,2 C 66 % 0 lf 1018,9 hPa 0,0 l/m 2 min 0 min 79 W/m 23,0 km/h (4 Bft) 95,65 %
17.04.2017 19:40 8,2 C 8,9 C 7,2 C 66 % 0 lf 1018,9 hPa 0,0 l/m 2 min 0 min 76 W/m 16,7 km/h (3 Bft) 100,00 %
17.04.2017 19:42 8,2 C 8,9 C 7,2 C 66 % 0 lf 1018,9 hPa 0,0 l/m 2 min 0 min 71 W/m 16,7 km/h (3 Bft) 97,87 %
17.04.2017 19:44 8,1 C 8,3 C 7,2 C 66 % 0 lf 1018,9 hPa 0,0 l/m 2 min 0 min 64 W/m 27,2 km/h (4 Bft) 100,00 %
17.04.2017 19:46 8,1 C 8,3 C 7,2 C 66 % 0 lf 1018,9 hPa 0,0 l/m 2 min 0 min 58 W/m 18,8 km/h (3 Bft) 95,74 %
17.04.2017 19:48 8,1 C 8,3 C 6,7 C 66 % 0 lf 1018,9 hPa 0,0 l/m 0 min 0 min 47 W/m 20,9 km/h (4 Bft) 100,00 %
17.04.2017 19:50 8,1 C 8,3 C 6,7 C 66 % 0 lf 1018,9 hPa 0,0 l/m 0 min 0 min 38 W/m 16,7 km/h (3 Bft) 100,00 %
17.04.2017 19:52 8,1 C 8,3 C 6,7 C 66 % 0 lf 1019,0 hPa 0,0 l/m 0 min 0 min 32 W/m 18,8 km/h (3 Bft) 100,00 %
17.04.2017 19:54 8,1 C 7,8 C 6,1 C 66 % 0 lf 1019,0 hPa 0,0 l/m 0 min 0 min 28 W/m 23,0 km/h (4 Bft) 93,62 %
17.04.2017 19:56 8,0 C 7,8 C 6,1 C 66 % 0 lf 1019,0 hPa 0,0 l/m 0 min 0 min 26 W/m 29,3 km/h (5 Bft) 100,00 %
17.04.2017 19:58 8,0 C 7,8 C 6,1 C 67 % 0 lf 1019,0 hPa 0,0 l/m 0 min 0 min 24 W/m 18,8 km/h (3 Bft) 95,74 %
17.04.2017 20:00 7,9 C 7,8 C 5,6 C 67 % 0 lf 1019,0 hPa 0,0 l/m 0 min 0 min 21 W/m 20,9 km/h (4 Bft) 100,00 %
17.04.2017 20:02 7,9 C 7,2 C 5,6 C 67 % 0 lf 1019,0 hPa 0,0 l/m 0 min 0 min 19 W/m 18,8 km/h (3 Bft) 97,87 %
17.04.2017 20:04 7,9 C 7,2 C 5,6 C 67 % 0 lf 1019,0 hPa 0,0 l/m 0 min 0 min 19 W/m 20,9 km/h (4 Bft) 97,87 %
17.04.2017 20:06 7,8 C 7,2 C 5,0 C 68 % 0 lf 1019,0 hPa 0,0 l/m 0 min 0 min 18 W/m 18,8 km/h (3 Bft) 97,87 %
17.04.2017 20:08 7,8 C 7,2 C 5,0 C 68 % 0 lf 1019,0 hPa 0,0 l/m 0 min 0 min 18 W/m 16,7 km/h (3 Bft) 97,87 %
17.04.2017 20:10 7,7 C 7,2 C 5,0 C 68 % 0 lf 1019,0 hPa 0,0 l/m 0 min 0 min 18 W/m 14,6 km/h (3 Bft) 95,74 %
17.04.2017 20:12 7,7 C 6,7 C 5,0 C 68 % 0 lf 1019,0 hPa 0,0 l/m 0 min 0 min 18 W/m 12,6 km/h (3 Bft) 97,83 %
17.04.2017 20:14 7,6 C 6,7 C 5,0 C 68 % 0 lf 1019,0 hPa 0,0 l/m 0 min 0 min 18 W/m 16,7 km/h (3 Bft) 93,62 %
17.04.2017 20:16 7,6 C 6,7 C 5,0 C 68 % 0 lf 1019,1 hPa 0,0 l/m 0 min 0 min 18 W/m 16,7 km/h (3 Bft) 95,74 %
17.04.2017 20:18 7,6 C 6,7 C 5,0 C 69 % 1 lf 1019,1 hPa 0,0 l/m 0 min 0 min 18 W/m 12,6 km/h (3 Bft) 97,87 %
17.04.2017 20:20 7,5 C 6,7 C 5,0 C 69 % 0 lf 1019,2 hPa 0,0 l/m 0 min 0 min 19 W/m 12,6 km/h (3 Bft) 95,74 %
17.04.2017 20:22 7,5 C 6,7 C 5,0 C 70 % 0 lf 1019,2 hPa 0,0 l/m 2 min 0 min 21 W/m 18,8 km/h (3 Bft) 95,74 %
17.04.2017 20:24 7,4 C 6,7 C 5,0 C 70 % 0 lf 1019,3 hPa 0,0 l/m 0 min 2 min 19 W/m 12,6 km/h (3 Bft) 97,83 %
17.04.2017 20:26 7,4 C 6,7 C 5,0 C 70 % 0 lf 1019,3 hPa 0,0 l/m 0 min 0 min 16 W/m 16,7 km/h (3 Bft) 97,87 %
17.04.2017 20:28 7,3 C 6,7 C 5,0 C 70 % 0 lf 1019,4 hPa 0,0 l/m 0 min 0 min 13 W/m 14,6 km/h (3 Bft) 93,62 %
17.04.2017 20:30 7,3 C 6,7 C 5,0 C 70 % 0 lf 1019,4 hPa 0,0 l/m 0 min 0 min 12 W/m 10,5 km/h (2 Bft) 95,74 %
17.04.2017 20:32 7,3 C 6,7 C 5,0 C 70 % 0 lf 1019,4 hPa 0,0 l/m 0 min 0 min 12 W/m 14,6 km/h (3 Bft) 95,74 %
17.04.2017 20:34 7,2 C 6,7 C 5,0 C 71 % 0 lf 1019,4 hPa 0,0 l/m 0 min 0 min 11 W/m 16,7 km/h (3 Bft) 97,87 %
17.04.2017 20:36 7,2 C 6,7 C 5,0 C 71 % 0 lf 1019,4 hPa 0,0 l/m 0 min 0 min 10 W/m 12,6 km/h (3 Bft) 97,83 %
17.04.2017 20:38 7,2 C 6,7 C 5,0 C 71 % 0 lf 1019,4 hPa 0,0 l/m 0 min 0 min 8 W/m 23,0 km/h (4 Bft) 97,87 %
17.04.2017 20:40 7,2 C 6,7 C 5,0 C 72 % 0 lf 1019,4 hPa 0,0 l/m 0 min 0 min 7 W/m 27,2 km/h (4 Bft) 97,87 %
17.04.2017 20:42 7,1 C 6,7 C 5,0 C 71 % 0 lf 1019,5 hPa 0,0 l/m 0 min 0 min 7 W/m 20,9 km/h (4 Bft) 95,74 %
17.04.2017 20:44 7,1 C 6,7 C 5,0 C 71 % 0 lf 1019,5 hPa 0,0 l/m 0 min 0 min 5 W/m 14,6 km/h (3 Bft) 97,87 %
17.04.2017 20:46 7,0 C 6,7 C 5,0 C 71 % 0 lf 1019,4 hPa 0,0 l/m 0 min 0 min 5 W/m 14,6 km/h (3 Bft) 95,65 %
17.04.2017 20:48 7,0 C 6,1 C 4,4 C 71 % 0 lf 1019,4 hPa 0,0 l/m 0 min 0 min 5 W/m 18,8 km/h (3 Bft) 95,74 %
17.04.2017 20:50 6,9 C 6,1 C 4,4 C 71 % 0 lf 1019,5 hPa 0,0 l/m 0 min 0 min 0 W/m 16,7 km/h (3 Bft) 97,87 %
17.04.2017 20:52 6,9 C 6,1 C 4,4 C 71 % 0 lf 1019,6 hPa 0,0 l/m 0 min 0 min 5 W/m 16,7 km/h (3 Bft) 95,74 %
17.04.2017 20:54 6,8 C 6,1 C 4,4 C 71 % 0 lf 1019,6 hPa 0,0 l/m 0 min 0 min 0 W/m 16,7 km/h (3 Bft) 95,74 %
17.04.2017 20:56 6,8 C 6,1 C 4,4 C 71 % 0 lf 1019,6 hPa 0,0 l/m 0 min 0 min 0 W/m 12,6 km/h (3 Bft) 97,87 %
17.04.2017 20:58 6,8 C 6,1 C 4,4 C 71 % 0 lf 1019,7 hPa 0,0 l/m 0 min 0 min 0 W/m 16,7 km/h (3 Bft) 93,62 %
17.04.2017 21:00 6,7 C 6,1 C 4,4 C 71 % 0 lf 1019,7 hPa 0,0 l/m 0 min 0 min 5 W/m 16,7 km/h (3 Bft) 95,65 %
17.04.2017 21:02 6,7 C 6,1 C 3,9 C 71 % 0 lf 1019,8 hPa 0,0 l/m 0 min 0 min 0 W/m 12,6 km/h (3 Bft) 93,62 %
17.04.2017 21:04 6,7 C 5,6 C 3,9 C 71 % 0 lf 1019,8 hPa 0,0 l/m 0 min 0 min 4 W/m 16,7 km/h (3 Bft) 97,87 %
17.04.2017 21:06 6,6 C 5,6 C 3,9 C 71 % 0 lf 1019,8 hPa 0,0 l/m 0 min 0 min 0 W/m 16,7 km/h (3 Bft) 97,87 %
17.04.2017 21:08 6,6 C 5,6 C 3,9 C 71 % 0 lf 1019,9 hPa 0,0 l/m 0 min 0 min 5 W/m 20,9 km/h (4 Bft) 97,87 %
17.04.2017 21:10 6,5 C 5,6 C 3,9 C 71 % 0 lf 1019,8 hPa 0,0 l/m 0 min 0 min 5 W/m 25,1 km/h (4 Bft) 97,83 %
17.04.2017 21:12 6,4 C 5,6 C 3,9 C 71 % 0 lf 1019,9 hPa 0,0 l/m 0 min 0 min 5 W/m 23,0 km/h (4 Bft) 95,74 %
17.04.2017 21:14 6,4 C 5,6 C 3,9 C 71 % 0 lf 1019,9 hPa 0,0 l/m 0 min 0 min 0 W/m 27,2 km/h (4 Bft) 97,87 %
17.04.2017 21:16 6,4 C 5,6 C 3,9 C 72 % 0 lf 1020,1 hPa 0,0 l/m 0 min 0 min 0 W/m 12,6 km/h (3 Bft) 97,87 %
17.04.2017 21:18 6,4 C 5,6 C 4,4 C 72 % 0 lf 1020,1 hPa 0,0 l/m 0 min 0 min 4 W/m 29,3 km/h (5 Bft) 95,74 %
17.04.2017 21:20 6,3 C 5,6 C 4,4 C 73 % 0 lf 1020,1 hPa 0,0 l/m 0 min 0 min 0 W/m 23,0 km/h (4 Bft) 97,87 %
17.04.2017 21:22 6,3 C 6,1 C 4,4 C 73 % 0 lf 1020,1 hPa 0,0 l/m 0 min 0 min 0 W/m 14,6 km/h (3 Bft) 95,65 %
17.04.2017 21:24 6,3 C 6,1 C 4,4 C 73 % 0 lf 1020,1 hPa 0,0 l/m 0 min 0 min 0 W/m 25,1 km/h (4 Bft) 97,87 %
17.04.2017 21:26 6,2 C 6,1 C 4,4 C 74 % 0 lf 1020,1 hPa 0,0 l/m 0 min 0 min 0 W/m 18,8 km/h (3 Bft) 95,74 %
17.04.2017 21:28 6,2 C 6,1 C 4,4 C 74 % 0 lf 1020,2 hPa 0,0 l/m 0 min 0 min 0 W/m 29,3 km/h (5 Bft) 100,00 %
17.04.2017 21:30 6,2 C 6,1 C 4,4 C 74 % 0 lf 1020,2 hPa 0,0 l/m 0 min 0 min 0 W/m 23,0 km/h (4 Bft) 93,62 %
17.04.2017 21:32 6,1 C 6,1 C 4,4 C 74 % 0 lf 1020,2 hPa 0,0 l/m 0 min 0 min 0 W/m 25,1 km/h (4 Bft) 93,62 %
17.04.2017 21:34 6,1 C 6,1 C 4,4 C 74 % 0 lf 1020,2 hPa 0,0 l/m 0 min 0 min 0 W/m 20,9 km/h (4 Bft) 95,65 %
17.04.2017 21:36 6,1 C 6,1 C 4,4 C 74 % 0 lf 1020,3 hPa 0,0 l/m 0 min 0 min 0 W/m 23,0 km/h (4 Bft) 93,62 %
17.04.2017 21:38 6,1 C 6,1 C 4,4 C 73 % 0 lf 1020,3 hPa 0,0 l/m 0 min 0 min 0 W/m 20,9 km/h (4 Bft) 95,74 %
17.04.2017 21:40 6,0 C 6,1 C 4,4 C 73 % 0 lf 1020,2 hPa 0,0 l/m 0 min 0 min 0 W/m 12,6 km/h (3 Bft) 91,49 %
17.04.2017 21:42 6,0 C 6,1 C 4,4 C 73 % 0 lf 1020,2 hPa 0,0 l/m 0 min 0 min 0 W/m 20,9 km/h (4 Bft) 95,74 %
17.04.2017 21:44 6,0 C 5,6 C 4,4 C 73 % 0 lf 1020,2 hPa 0,0 l/m 0 min 0 min 0 W/m 16,7 km/h (3 Bft) 95,74 %
17.04.2017 21:46 5,9 C 5,6 C 4,4 C 73 % 0 lf 1020,3 hPa 0,0 l/m 0 min 0 min 0 W/m 20,9 km/h (4 Bft) 95,65 %
17.04.2017 21:48 5,9 C 5,6 C 3,9 C 73 % 0 lf 1020,3 hPa 0,0 l/m 0 min 0 min 0 W/m 18,8 km/h (3 Bft) 95,74 %
17.04.2017 21:50 5,9 C 5,6 C 3,9 C 73 % 0 lf 1020,3 hPa 0,0 l/m 0 min 0 min 0 W/m 18,8 km/h (3 Bft) 93,62 %
17.04.2017 21:52 5,9 C 5,6 C 3,9 C 73 % 0 lf 1020,4 hPa 0,0 l/m 0 min 0 min 0 W/m 16,7 km/h (3 Bft) 89,36 %
17.04.2017 21:54 5,8 C 5,6 C 3,9 C 73 % 0 lf 1020,3 hPa 0,0 l/m 0 min 0 min 0 W/m 18,8 km/h (3 Bft) 93,62 %
17.04.2017 21:56 5,8 C 5,6 C 3,3 C 73 % 0 lf 1020,4 hPa 0,0 l/m 0 min 0 min 0 W/m 14,6 km/h (3 Bft) 93,62 %
17.04.2017 21:58 5,8 C 5,0 C 3,9 C 73 % 0 lf 1020,5 hPa 0,0 l/m 0 min 0 min 0 W/m 20,9 km/h (4 Bft) 91,30 %
17.04.2017 22:00 5,7 C 5,0 C 3,3 C 73 % 0 lf 1020,4 hPa 0,0 l/m 0 min 0 min 0 W/m 20,9 km/h (4 Bft) 92,00 %
17.04.2017 22:02 5,7 C 5,0 C 3,3 C 74 % 0 lf 1020,5 hPa 0,0 l/m 0 min 0 min 0 W/m 16,7 km/h (3 Bft) 93,48 %
17.04.2017 22:04 5,7 C 5,0 C 3,3 C 74 % 0 lf 1020,6 hPa 0,0 l/m 0 min 0 min 0 W/m 18,8 km/h (3 Bft) 95,74 %
17.04.2017 22:06 5,6 C 5,0 C 3,3 C 74 % 0 lf 1020,6 hPa 0,0 l/m 0 min 0 min 0 W/m 20,9 km/h (4 Bft) 97,87 %
17.04.2017 22:08 5,6 C 5,0 C 3,3 C 74 % 0 lf 1020,6 hPa 0,0 l/m 0 min 0 min 0 W/m 23,0 km/h (4 Bft) 93,62 %
17.04.2017 22:10 5,5 C 5,0 C 3,3 C 74 % 0 lf 1020,6 hPa 0,0 l/m 0 min 0 min 0 W/m 20,9 km/h (4 Bft) 95,74 %
17.04.2017 22:12 5,5 C 5,0 C 3,3 C 75 % 0 lf 1020,6 hPa 0,0 l/m 0 min 0 min 0 W/m 20,9 km/h (4 Bft) 95,74 %
17.04.2017 22:14 5,4 C 5,0 C 3,3 C 75 % 0 lf 1020,7 hPa 0,0 l/m 0 min 0 min 0 W/m 16,7 km/h (3 Bft) 93,48 %
17.04.2017 22:16 5,4 C 5,0 C 3,3 C 75 % 0 lf 1020,7 hPa 0,0 l/m 0 min 0 min 0 W/m 23,0 km/h (4 Bft) 95,74 %
17.04.2017 22:18 5,3 C 5,0 C 3,3 C 75 % 0 lf 1020,8 hPa 0,0 l/m 0 min 0 min 0 W/m 25,1 km/h (4 Bft) 95,74 %
17.04.2017 22:20 5,3 C 5,0 C 3,3 C 76 % 0 lf 1020,7 hPa 0,0 l/m 0 min 0 min 0 W/m 23,0 km/h (4 Bft) 93,62 %
17.04.2017 22:22 5,3 C 4,4 C 3,3 C 76 % 0 lf 1020,7 hPa 0,0 l/m 0 min 0 min 0 W/m 23,0 km/h (4 Bft) 95,74 %
17.04.2017 22:24 5,2 C 4,4 C 3,3 C 76 % 0 lf 1020,7 hPa 0,0 l/m 0 min 0 min 0 W/m 29,3 km/h (5 Bft) 97,87 %
17.04.2017 22:26 5,2 C 4,4 C 3,3 C 77 % 0 lf 1020,8 hPa 0,0 l/m 0 min 0 min 0 W/m 27,2 km/h (4 Bft) 95,65 %
17.04.2017 22:28 5,1 C 4,4 C 3,3 C 77 % 0 lf 1020,8 hPa 0,0 l/m 0 min 0 min 0 W/m 25,1 km/h (4 Bft) 97,87 %
17.04.2017 22:30 5,1 C 5,0 C 3,3 C 77 % 0 lf 1020,8 hPa 0,0 l/m 0 min 0 min 0 W/m 33,5 km/h (5 Bft) 97,87 %
17.04.2017 22:32 5,1 C 5,0 C 3,3 C 78 % 0 lf 1020,8 hPa 0,0 l/m 0 min 0 min 0 W/m 25,1 km/h (4 Bft) 97,87 %
17.04.2017 22:34 5,1 C 5,0 C 3,3 C 78 % 2 lf 1020,8 hPa 0,0 l/m 0 min 0 min 0 W/m 27,2 km/h (4 Bft) 97,87 %
17.04.2017 22:36 5,0 C 5,0 C 3,3 C 78 % 0 lf 1020,9 hPa 0,0 l/m 0 min 0 min 0 W/m 23,0 km/h (4 Bft) 97,87 %
17.04.2017 22:38 5,0 C 5,0 C 3,3 C 79 % 0 lf 1020,8 hPa 0,0 l/m 0 min 0 min 0 W/m 27,2 km/h (4 Bft) 97,83 %
17.04.2017 22:40 5,0 C 5,0 C 3,3 C 78 % 4 lf 1020,9 hPa 0,0 l/m 0 min 0 min 0 W/m 31,4 km/h (5 Bft) 95,74 %
17.04.2017 22:42 5,0 C 5,0 C 3,3 C 79 % 7 lf 1020,8 hPa 0,0 l/m 0 min 2 min 0 W/m 23,0 km/h (4 Bft) 100,00 %
17.04.2017 22:44 4,9 C 5,0 C 3,3 C 79 % 10 lf 1020,9 hPa 0,0 l/m 0 min 2 min 0 W/m 18,8 km/h (3 Bft) 93,62 %
17.04.2017 22:46 4,9 C 5,0 C 3,3 C 79 % 6 lf 1020,9 hPa 0,0 l/m 0 min 2 min 0 W/m 25,1 km/h (4 Bft) 95,74 %
17.04.2017 22:48 4,9 C 5,0 C 3,3 C 79 % 4 lf 1020,8 hPa 0,0 l/m 0 min 0 min 0 W/m 23,0 km/h (4 Bft) 100,00 %
17.04.2017 22:50 4,9 C 5,0 C 3,3 C 80 % 3 lf 1020,8 hPa 0,0 l/m 0 min 0 min 0 W/m 23,0 km/h (4 Bft) 93,75 %
17.04.2017 22:52 4,9 C 5,0 C 3,3 C 80 % 2 lf 1020,8 hPa 0,0 l/m 0 min 0 min 0 W/m 31,4 km/h (5 Bft) 97,83 %
17.04.2017 22:54 4,9 C 5,0 C 3,3 C 80 % 0 lf 1020,9 hPa 0,0 l/m 0 min 0 min 0 W/m 31,4 km/h (5 Bft) 100,00 %
17.04.2017 22:56 4,8 C 5,0 C 3,3 C 80 % 0 lf 1020,9 hPa 0,0 l/m 0 min 0 min 0 W/m 20,9 km/h (4 Bft) 97,87 %
17.04.2017 22:58 4,8 C 4,4 C 3,3 C 80 % 0 lf 1020,9 hPa 0,0 l/m 0 min 0 min 0 W/m 23,0 km/h (4 Bft) 97,87 %
17.04.2017 23:00 4,8 C 4,4 C 3,3 C 80 % 0 lf 1020,8 hPa 0,0 l/m 0 min 0 min 0 W/m 20,9 km/h (4 Bft) 95,65 %
17.04.2017 23:02 4,8 C 4,4 C 3,3 C 80 % 0 lf 1020,9 hPa 0,0 l/m 0 min 0 min 0 W/m 20,9 km/h (4 Bft) 93,62 %
17.04.2017 23:04 4,7 C 4,4 C 3,3 C 80 % 0 lf 1021,0 hPa 0,0 l/m 0 min 0 min 0 W/m 20,9 km/h (4 Bft) 95,74 %
17.04.2017 23:06 4,7 C 4,4 C 3,3 C 80 % 0 lf 1021,0 hPa 0,0 l/m 0 min 0 min 0 W/m 16,7 km/h (3 Bft) 97,87 %
17.04.2017 23:08 4,7 C 4,4 C 3,3 C 80 % 0 lf 1021,0 hPa 0,0 l/m 0 min 0 min 0 W/m 23,0 km/h (4 Bft) 97,87 %
17.04.2017 23:10 4,7 C 4,4 C 3,3 C 80 % 0 lf 1021,0 hPa 0,0 l/m 0 min 0 min 0 W/m 20,9 km/h (4 Bft) 93,62 %
17.04.2017 23:12 4,7 C 4,4 C 3,3 C 81 % 0 lf 1021,1 hPa 0,0 l/m 0 min 0 min 0 W/m 29,3 km/h (5 Bft) 97,83 %
17.04.2017 23:14 4,6 C 4,4 C 3,3 C 81 % 0 lf 1021,0 hPa 0,0 l/m 0 min 0 min 0 W/m 27,2 km/h (4 Bft) 93,62 %
17.04.2017 23:16 4,6 C 4,4 C 3,3 C 81 % 0 lf 1021,1 hPa 0,0 l/m 0 min 0 min 0 W/m 16,7 km/h (3 Bft) 97,87 %
17.04.2017 23:18 4,6 C 4,4 C 3,3 C 81 % 0 lf 1021,0 hPa 0,0 l/m 0 min 0 min 0 W/m 23,0 km/h (4 Bft) 97,87 %
17.04.2017 23:20 4,6 C 4,4 C 3,3 C 81 % 0 lf 1021,0 hPa 0,0 l/m 0 min 0 min 0 W/m 20,9 km/h (4 Bft) 97,87 %
17.04.2017 23:22 4,6 C 4,4 C 3,3 C 81 % 0 lf 1021,0 hPa 0,0 l/m 0 min 0 min 0 W/m 16,7 km/h (3 Bft) 97,87 %
17.04.2017 23:24 4,6 C 4,4 C 3,3 C 81 % 0 lf 1021,1 hPa 0,0 l/m 0 min 0 min 0 W/m 20,9 km/h (4 Bft) 95,74 %
17.04.2017 23:26 4,6 C 4,4 C 3,3 C 82 % 0 lf 1021,1 hPa 0,0 l/m 0 min 0 min 0 W/m 14,6 km/h (3 Bft) 97,83 %
17.04.2017 23:28 4,6 C 4,4 C 3,3 C 82 % 6 lf 1021,1 hPa 0,0 l/m 0 min 0 min 0 W/m 14,6 km/h (3 Bft) 97,87 %
17.04.2017 23:30 4,5 C 4,4 C 3,3 C 82 % 6 lf 1021,0 hPa 0,0 l/m 0 min 2 min 0 W/m 16,7 km/h (3 Bft) 95,74 %
17.04.2017 23:32 4,5 C 4,4 C 3,3 C 82 % 4 lf 1021,1 hPa 0,0 l/m 0 min 2 min 0 W/m 20,9 km/h (4 Bft) 95,74 %
17.04.2017 23:34 4,5 C 4,4 C 2,8 C 83 % 3 lf 1021,1 hPa 0,0 l/m 0 min 0 min 0 W/m 23,0 km/h (4 Bft) 97,87 %
17.04.2017 23:36 4,5 C 4,4 C 2,8 C 83 % 2 lf 1021,1 hPa 0,0 l/m 0 min 0 min 0 W/m 12,6 km/h (3 Bft) 97,83 %
17.04.2017 23:38 4,5 C 4,4 C 2,8 C 83 % 1 lf 1021,1 hPa 0,0 l/m 0 min 0 min 0 W/m 12,6 km/h (3 Bft) 93,62 %
17.04.2017 23:40 4,4 C 3,9 C 2,8 C 83 % 0 lf 1021,1 hPa 0,0 l/m 0 min 0 min 0 W/m 14,6 km/h (3 Bft) 97,87 %
17.04.2017 23:42 4,4 C 3,9 C 2,8 C 83 % 0 lf 1021,1 hPa 0,0 l/m 0 min 0 min 0 W/m 10,5 km/h (2 Bft) 100,00 %
17.04.2017 23:44 4,4 C 3,9 C 2,8 C 83 % 0 lf 1021,1 hPa 0,0 l/m 0 min 0 min 0 W/m 12,6 km/h (3 Bft) 95,74 %
17.04.2017 23:46 4,4 C 3,9 C 2,2 C 83 % 0 lf 1021,1 hPa 0,0 l/m 0 min 0 min 0 W/m 14,6 km/h (3 Bft) 95,65 %
17.04.2017 23:48 4,4 C 3,9 C 2,2 C 83 % 0 lf 1021,1 hPa 0,0 l/m 0 min 0 min 0 W/m 16,7 km/h (3 Bft) 97,87 %
17.04.2017 23:50 4,3 C 3,9 C 2,2 C 83 % 0 lf 1021,1 hPa 0,0 l/m 0 min 0 min 0 W/m 12,6 km/h (3 Bft) 97,87 %
17.04.2017 23:52 4,3 C 3,9 C 2,2 C 83 % 0 lf 1021,1 hPa 0,0 l/m 0 min 0 min 0 W/m 8,4 km/h (2 Bft) 97,87 %
17.04.2017 23:54 4,3 C 3,3 C 2,2 C 83 % 0 lf 1021,2 hPa 0,0 l/m 0 min 0 min 0 W/m 12,6 km/h (3 Bft) 97,87 %
17.04.2017 23:56 4,2 C 3,3 C 1,7 C 83 % 0 lf 1021,1 hPa 0,0 l/m 0 min 0 min 0 W/m 14,6 km/h (3 Bft) 97,87 %
17.04.2017 23:58 4,2 C 3,3 C 2,2 C 83 % 0 lf 1021,3 hPa 0,0 l/m 0 min 0 min 0 W/m 20,9 km/h (4 Bft) 97,87 %
_ Min-Zeit 07:54 06:30 23:56 15:12 00:00 06:06 - - - - 01:30 04:06
Minimum _ 3,3 C 3,3 C 1,7 C 54 % 0 lf 1014,5 hPa - - - - 0,0 km/h (0 Bft) 4,76 %
_ Max-Zeit 15:08 13:08 15:04 08:12 00:58 23:58 07:44 09:04 00:38 13:16 19:14 00:38
Maximum _ 12,1 C 21,7 C 20,6 C 96 % 15 lf 1021,3 hPa 0,4 l/m 2 min 2 min 1014 W/m 52,3 km/h
NW (7 Bft)
100,00 %
Durchschnitt _ 6,7 C 8,1 C 6,1 C 80 % 6 lf 1017,5 hPa #11,2 l/m #4:44 h #8:48 h 278 W/m 17,4 km/h (3 Bft) 96,18 %
© 2017 W. Hausmann